GFSSE_700_spd_000.txt.gz
Wind_Speed
2 5 8 3 4 3 3 5 8 9 8 7 6 8 10 8 17 13 13 12 14 14 13 12 12 12 11 10 10 11 12 12 11 12 14 14 14 14 13 14 14 11 9
2 5 4 3 3 5 4 5 6 8 6 6 7 8 10 12 19 19 20 13 14 17 15 14 14 14 13 11 12 12 12 13 12 11 12 12 12 11 12 12 9 6 7
4 2 4 6 6 7 8 10 8 9 12 7 11 9 9 9 14 20 28 23 19 14 17 13 17 17 16 13 13 13 13 14 13 13 12 12 12 12 12 11 9 8 8
4 3 3 4 7 8 11 14 16 19 17 15 11 13 11 15 18 24 23 24 26 27 11 20 21 18 15 15 16 15 13 13 13 13 12 14 14 13 12 12 10 9 8
2 4 6 7 10 11 11 11 12 15 14 13 11 13 11 13 18 18 19 20 21 16 18 23 32 11 14 15 16 14 14 15 15 14 13 14 14 12 13 13 13 12 11
4 7 10 12 13 16 17 19 18 16 17 18 15 15 18 12 16 16 20 19 20 20 19 24 29 34 14 16 14 15 17 18 17 16 16 16 14 14 14 15 16 15 13
9 12 15 17 19 20 18 19 20 20 19 18 18 17 18 14 17 17 16 19 21 19 19 24 36 40 19 15 15 21 24 21 21 17 19 18 15 16 16 17 17 18 16
11 13 16 17 17 18 18 18 18 19 20 21 21 20 20 18 15 20 22 19 22 23 24 29 30 23 22 23 25 26 28 26 22 21 20 19 20 15 17 18 20 19 19
15 17 18 16 16 16 17 19 20 21 23 24 25 23 21 22 19 19 21 24 25 27 24 28 27 24 26 27 29 30 29 29 26 24 24 27 23 20 18 18 20 22 21
16 17 16 19 22 21 20 20 22 22 23 22 23 22 20 20 21 21 19 19 21 23 25 26 29 30 29 32 31 32 32 31 29 29 29 32 29 24 21 20 20 21 25
14 14 16 17 19 20 25 26 23 23 23 19 19 20 19 17 15 15 16 15 14 18 23 26 29 30 32 34 37 36 39 33 30 30 33 32 27 26 24 24 23 22 24
15 17 17 17 20 22 26 26 25 19 16 15 14 15 15 15 14 14 15 17 16 15 18 26 30 27 28 36 42 43 41 40 37 33 32 32 32 28 28 28 25 26 24
20 20 18 21 24 25 25 23 22 17 17 15 16 15 14 13 15 17 17 17 18 18 17 18 14 23 30 42 45 39 40 38 41 40 38 37 36 32 27 28 26 26 29
21 23 21 23 24 22 17 19 20 20 19 19 17 17 17 17 18 20 20 20 21 23 23 21 19 21 28 28 40 29 26 25 41 43 41 38 35 33 32 37 36 32 32
21 24 24 22 19 14 18 18 20 22 22 23 22 21 22 23 24 25 25 26 27 27 27 27 27 28 25 24 21 29 24 36 34 43 46 41 36 34 35 35 34 41 39
22 24 25 20 16 20 21 20 21 24 25 26 26 25 25 25 26 26 28 29 27 27 26 25 26 27 26 24 22 18 11 15 19 30 34 34 36 40 37 31 33 37 30
24 24 21 19 20 23 25 25 25 25 27 29 30 31 30 30 30 32 33 34 33 31 30 29 27 26 29 26 23 22 19 19 20 17 19 38 54 36 35 37 39 37 37
24 25 23 25 27 27 30 29 31 31 31 34 36 34 35 35 36 36 35 33 33 33 32 30 30 29 28 31 29 24 25 26 28 27 30 30 33 31 32 36 37 38 37
24 26 26 27 31 32 32 32 34 35 35 38 38 39 37 37 37 38 38 37 35 35 37 36 36 35 31 31 34 31 28 31 32 33 34 30 31 31 31 35 34 37 36
25 27 29 32 34 33 33 32 35 36 36 40 40 42 38 37 36 35 37 36 35 37 38 37 38 38 38 36 34 36 34 34 35 35 34 36 35 33 33 34 36 34 33
23 26 27 29 30 31 32 34 34 36 36 37 36 39 40 37 35 33 34 37 38 38 38 39 39 38 37 37 38 37 38 37 37 37 40 40 36 32 32 32 33 34 33
24 24 26 30 36 38 34 33 32 32 34 36 36 39 40 35 37 39 36 37 37 39 40 40 40 39 35 34 37 38 39 38 34 39 40 39 35 34 35 37 35 37 40
28 29 32 35 36 38 36 28 34 36 32 34 37 36 35 31 35 34 38 38 38 40 39 37 36 35 37 35 34 36 38 41 40 35 38 36 39 42 41 34 36 36 36
32 35 34 34 34 35 38 39 32 38 40 35 35 34 28 25 29 33 36 34 34 39 40 39 37 36 38 40 39 37 36 39 42 45 42 38 40 41 42 45 41 38 38
30 32 30 29 31 32 32 36 39 34 38 36 36 37 32 34 40 45 46 47 41 37 42 43 42 40 41 43 40 39 38 37 38 43 48 45 44 41 43 45 47 49 43
27 32 32 36 34 34 34 34 38 41 36 41 42 44 46 48 49 50 53 54 42 40 42 44 45 48 48 46 43 42 41 39 38 39 41 43 45 46 45 42 45 49 51

GFSSE_700_spd_003.txt.gz
Wind_Speed
6 7 8 9 8 6 5 2 3 5 8 8 6 5 7 12 14 13 13 18 15 13 12 14 14 12 12 10 9 10 13 13 13 13 18 15 12 10 15 15 14 11 11
8 7 2 3 4 4 5 6 7 8 9 7 8 8 9 9 13 17 20 22 19 13 16 17 15 12 12 14 13 13 13 14 14 15 15 17 16 16 16 15 12 11 13
6 6 6 6 6 8 9 9 11 12 15 13 9 11 10 10 12 16 17 18 23 31 19 26 24 18 15 16 16 16 15 15 15 17 17 17 18 17 16 15 12 11 11
9 5 4 3 5 7 10 13 14 14 16 17 15 12 11 10 10 13 16 17 18 19 26 17 19 26 16 17 16 16 16 15 16 16 17 19 18 17 15 15 13 12 11
5 3 3 7 10 12 15 17 19 19 21 21 18 14 10 10 11 13 12 14 16 16 18 12 14 33 22 12 13 18 18 16 15 15 15 18 18 20 16 15 14 13 13
4 7 10 13 16 17 19 20 23 22 20 19 16 16 15 13 13 15 14 13 15 16 14 13 12 18 24 22 13 26 21 17 16 15 16 19 16 16 16 14 16 15 13
9 11 14 16 17 19 20 19 19 20 19 19 20 18 19 20 18 18 18 17 19 17 16 14 15 20 25 25 20 27 5 23 14 17 19 22 19 18 16 15 16 17 16
9 13 15 17 19 20 19 18 18 18 19 20 21 21 21 21 20 20 22 19 19 18 18 18 19 20 23 26 22 5 7 26 22 27 26 27 22 21 18 18 17 17 17
16 15 16 19 20 20 21 20 20 20 19 19 21 21 19 19 19 20 19 18 17 19 19 21 21 22 20 20 20 19 18 24 27 31 33 31 26 23 21 19 19 19 19
20 21 22 23 23 21 21 19 20 21 20 21 21 20 17 17 16 15 17 18 17 16 15 17 21 23 23 19 20 22 23 26 29 31 33 32 31 26 26 23 21 21 21
24 18 19 25 25 25 27 27 24 23 24 21 18 18 17 16 15 14 13 14 14 14 16 17 20 23 22 19 19 22 27 30 34 37 34 32 35 30 26 24 24 24 24
25 20 15 17 20 23 29 28 25 22 20 17 20 18 17 16 14 13 14 17 18 16 15 15 17 18 12 10 16 18 28 36 37 40 38 34 35 36 31 28 29 27 26
26 23 17 17 20 24 24 20 17 16 15 18 20 20 18 19 21 21 21 21 21 20 18 18 18 15 15 18 25 28 33 36 38 37 36 37 36 37 35 33 31 31 29
23 22 14 19 23 22 18 17 20 17 20 20 21 22 21 21 21 23 23 22 21 23 25 23 19 16 16 16 21 25 25 24 32 30 40 38 38 37 37 37 35 32 31
21 23 20 21 22 20 16 19 21 21 21 22 23 24 26 26 26 25 25 25 26 25 25 24 22 20 20 17 17 19 20 23 20 33 41 46 40 39 41 39 38 38 37
20 23 22 22 20 18 19 20 23 24 25 27 27 27 29 29 29 30 30 30 29 29 29 28 25 23 21 22 22 20 19 14 30 30 40 35 34 40 38 39 37 39 42
20 22 20 21 20 20 23 24 26 26 28 30 30 32 34 33 35 36 36 35 33 32 31 30 29 28 27 24 22 23 21 21 23 23 25 43 43 45 45 44 42 43 38
24 25 24 23 22 23 27 30 31 29 29 32 33 32 35 35 35 37 37 36 37 37 35 32 32 33 31 29 27 26 27 27 26 27 28 28 31 33 47 45 51 56 46
32 30 27 26 26 26 30 30 31 33 33 36 37 31 32 34 34 35 35 34 36 37 37 35 35 35 35 34 34 32 30 30 30 31 34 33 33 31 32 37 45 40 38
33 28 25 25 24 26 27 30 35 35 34 36 37 37 30 28 30 32 34 33 35 37 38 36 36 36 37 38 39 40 37 33 33 34 35 38 40 37 36 34 35 31 35
29 24 25 26 26 29 31 30 28 30 28 28 29 33 38 35 30 28 33 38 38 37 35 35 36 38 39 40 42 39 35 35 33 34 36 40 44 42 40 39 38 38 37
22 23 25 26 28 29 27 30 31 30 30 31 31 33 35 36 35 34 32 34 35 35 37 36 35 35 37 36 37 39 39 34 33 34 37 38 42 44 44 42 39 38 39
25 32 30 30 27 32 34 33 32 34 35 31 33 34 36 36 32 30 32 32 35 39 41 40 37 33 33 32 34 33 37 40 36 33 34 36 35 39 42 42 40 37 34
37 34 28 30 29 34 36 37 37 33 33 35 34 34 37 39 38 35 35 35 36 37 43 45 45 45 37 33 32 34 35 39 43 43 37 37 35 37 37 41 38 38 41
35 33 34 36 42 39 40 35 35 37 34 33 35 37 40 41 39 34 40 41 40 37 36 42 46 44 39 39 38 38 41 41 40 43 47 42 40 37 41 42 45 49 44
30 30 33 36 41 42 45 41 40 41 40 42 41 39 38 42 44 47 46 43 40 42 53 57 44 52 46 41 39 41 42 44 44 42 45 44 43 41 39 40 45 47 48

GFSSE_700_spd_006.txt.gz
Wind_Speed
3 2 6 6 4 5 5 4 5 2 5 10 9 11 8 7 8 8 7 5 5 10 11 18 15 15 15 16 15 14 13 14 16 17 17 18 15 15 15 10 7 8 9
7 8 6 7 9 7 5 6 4 7 9 10 11 10 9 8 8 9 9 10 12 11 11 17 19 27 22 21 19 16 15 14 16 17 16 16 18 16 14 12 10 11 14
8 7 7 5 5 1 3 3 5 9 11 10 11 13 9 6 8 10 10 12 14 16 19 18 18 24 32 30 24 17 15 15 15 17 16 17 17 17 15 13 13 15 16
9 8 5 4 4 7 9 10 11 14 14 15 14 14 12 7 7 8 10 12 15 16 17 14 14 19 32 24 24 17 20 19 16 16 15 18 18 18 17 19 18 19 17
7 3 1 6 9 11 12 14 15 16 17 16 15 15 11 7 7 8 8 10 12 13 15 14 14 17 31 32 17 22 31 21 19 18 15 16 18 20 21 21 21 20 18
3 2 5 7 9 11 13 15 15 16 17 18 18 17 12 11 11 11 12 13 12 13 14 13 15 13 20 28 30 16 15 25 23 21 16 16 15 20 23 23 21 19 17
4 5 6 9 13 16 16 17 16 16 18 17 19 18 18 17 15 15 14 17 14 14 14 15 13 16 15 17 18 16 27 35 25 23 22 18 16 16 18 26 21 20 19
6 10 12 14 16 17 18 20 21 22 22 22 21 21 21 19 17 16 17 18 17 16 14 12 13 16 18 18 17 17 15 23 38 32 22 22 19 19 19 24 23 20 20
12 13 15 14 14 15 17 18 19 22 23 22 22 22 21 20 19 18 16 15 14 13 15 13 10 12 16 18 17 13 16 15 31 29 27 27 27 24 24 24 26 22 20
15 16 15 14 15 17 17 18 21 21 20 18 17 16 16 15 14 14 13 12 11 11 13 12 10 11 13 16 17 17 16 16 21 25 30 34 34 26 26 26 26 26 24
17 14 18 20 19 20 23 24 23 18 16 15 13 17 16 14 13 13 13 13 12 12 10 10 12 14 15 11 14 15 14 14 20 25 28 33 34 31 28 28 30 27 26
18 16 21 24 22 25 26 23 16 17 14 14 14 16 15 15 14 14 15 16 17 16 14 13 13 15 13 8 10 11 14 17 21 26 32 33 35 38 34 31 31 29 30
15 18 18 18 19 21 21 16 18 18 17 17 18 19 18 17 17 17 18 18 19 19 19 19 18 14 14 12 14 18 22 24 27 27 31 34 34 36 38 35 37 35 34
15 17 16 17 20 20 17 13 16 18 19 18 19 20 21 21 21 21 21 21 21 20 21 21 21 20 17 16 15 15 17 23 26 25 24 27 33 36 38 37 37 38 38
15 18 19 18 19 19 16 17 19 22 23 23 23 25 25 26 27 26 26 26 26 25 25 25 25 25 23 21 20 19 19 18 21 24 27 32 31 37 43 43 42 40 40
19 20 21 21 20 20 19 20 22 25 28 27 26 27 29 29 31 31 31 30 29 28 28 28 29 28 27 26 25 25 23 22 20 20 27 29 33 37 43 48 48 45 45
18 18 21 22 21 21 22 23 24 27 28 27 27 29 31 33 34 34 34 33 32 31 30 30 30 30 30 29 29 29 27 25 24 21 27 33 35 38 41 48 49 48 52
22 23 25 25 22 22 23 25 27 26 26 28 29 31 31 31 33 34 33 31 31 30 29 30 30 30 30 31 32 32 31 30 28 29 30 32 34 34 43 48 46 53 50
21 25 27 28 27 25 24 24 28 29 28 26 25 24 26 27 28 28 28 29 31 31 30 30 31 32 32 33 33 33 34 35 34 35 35 36 36 38 39 40 40 41 56
19 22 26 28 28 26 27 27 26 26 26 27 27 23 20 22 26 28 29 30 31 32 31 32 33 33 32 33 35 36 34 34 35 36 40 41 41 41 45 45 42 41 40
18 22 22 24 24 24 23 27 28 28 28 27 28 28 29 26 23 26 29 30 30 32 33 31 31 30 32 33 33 32 31 32 32 35 38 41 43 44 45 46 48 47 43
15 16 26 23 19 22 31 29 33 33 31 29 27 29 32 32 31 31 31 31 33 35 37 35 35 37 38 39 36 35 37 35 31 27 33 37 40 42 43 44 45 47 45
20 25 32 35 27 28 38 38 44 41 36 32 29 31 33 36 37 37 36 32 33 36 38 39 44 44 41 42 43 43 44 41 38 32 29 30 34 37 40 42 42 42 41
28 31 40 41 35 33 39 40 43 47 45 37 34 36 37 40 41 39 40 39 38 41 43 46 48 44 42 44 47 48 49 44 41 45 36 35 35 35 36 42 42 43 39
30 34 38 40 37 35 33 37 47 50 45 42 38 38 41 45 46 42 40 42 45 46 49 46 44 46 47 42 53 56 47 43 38 40 46 42 38 38 39 39 44 45 47
31 36 39 38 39 36 35 36 49 42 42 40 37 38 42 47 49 47 44 46 47 47 51 52 51 49 47 53 61 53 44 39 40 41 43 44 47 41 42 40 41 45 50

GFSSE_700_spd_009.txt.gz
Wind_Speed
6 7 10 10 10 7 5 7 9 12 6 8 7 3 5 8 9 9 6 4 4 6 8 11 18 17 22 21 19 22 23 23 19 18 18 19 21 16 17 14 10 9 8
10 8 10 12 9 7 4 4 0 5 5 4 4 5 5 6 7 9 9 7 12 11 12 13 13 16 19 28 24 17 21 20 20 20 20 19 21 21 19 16 14 11 10
12 8 11 7 8 3 1 2 1 7 6 6 7 7 5 6 8 10 11 13 13 15 16 18 17 19 20 25 25 17 20 30 28 20 19 17 19 20 19 18 16 14 14
13 10 9 5 6 4 3 4 7 8 7 7 9 8 7 7 9 11 12 17 16 16 17 16 15 15 19 26 26 27 19 24 27 29 20 16 18 20 18 19 17 15 15
10 7 4 2 5 7 9 11 12 12 13 14 14 13 12 9 9 12 13 16 18 17 16 15 15 16 17 24 23 24 19 27 24 22 18 15 16 18 18 17 17 16 16
4 1 3 6 9 10 12 12 14 15 15 15 15 16 15 12 11 12 13 15 16 14 15 14 15 18 19 17 22 30 25 18 19 20 20 19 15 16 16 17 17 16 18
1 3 7 9 9 9 13 14 16 17 17 17 17 17 17 16 14 14 14 14 14 14 16 14 14 17 18 19 19 21 28 31 23 23 23 23 20 17 15 16 18 18 18
6 9 11 11 12 14 17 19 19 19 20 19 17 15 15 14 12 12 12 12 11 11 10 11 11 14 19 17 19 21 26 28 24 23 27 22 25 22 16 18 18 22 20
10 10 13 13 13 16 17 19 20 20 19 18 16 14 14 13 11 9 9 8 6 6 8 7 6 6 7 13 18 20 22 22 20 17 32 27 23 24 19 18 20 21 22
12 11 8 8 11 14 16 16 15 12 12 10 8 10 12 12 12 11 11 10 9 10 10 9 7 8 12 12 11 16 19 21 20 19 18 27 29 27 26 22 24 22 24
11 7 7 9 14 15 17 18 10 12 8 9 7 7 9 9 11 10 10 11 12 12 12 12 13 14 14 14 11 11 14 18 19 19 21 27 31 31 28 26 27 26 25
7 7 11 16 19 20 21 18 9 12 12 12 12 13 13 13 12 13 14 15 15 15 14 14 14 17 16 14 14 13 13 17 16 17 22 28 34 36 36 29 31 30 29
9 11 15 19 22 22 22 18 12 12 14 14 15 16 16 17 17 17 18 18 18 18 18 18 17 17 19 18 16 17 21 22 24 25 25 27 27 36 40 32 34 33 33
11 13 16 19 21 22 21 18 16 16 18 19 19 19 19 20 20 22 23 24 24 23 22 22 22 21 21 21 21 21 21 22 23 24 27 28 29 31 35 30 31 35 36
12 15 16 17 18 18 19 19 20 21 22 23 24 22 21 22 24 25 26 26 27 28 28 27 26 25 25 25 25 25 25 25 25 25 24 26 27 25 32 34 32 34 37
11 12 14 18 21 20 22 22 23 24 26 26 25 26 26 26 27 29 29 30 30 30 29 28 28 28 29 28 28 28 29 29 29 29 28 27 27 30 32 34 37 38 39
11 13 17 20 23 23 23 23 23 25 27 29 31 30 30 31 31 31 31 31 30 29 29 28 28 29 30 30 30 30 31 31 32 32 31 30 29 27 32 35 39 42 43
11 13 16 20 24 26 25 24 24 25 26 26 27 27 28 28 29 29 29 29 28 27 27 27 28 28 29 30 30 31 33 33 34 34 35 36 34 33 35 39 43 43 44
12 14 16 20 24 25 22 20 22 23 25 26 26 26 26 27 27 28 28 30 31 31 29 29 29 29 30 32 32 32 32 33 34 37 39 41 40 39 38 39 43 43 45
11 14 17 17 20 21 15 21 24 24 27 29 29 27 26 26 27 28 28 30 31 30 28 28 28 29 30 32 31 31 33 36 36 35 36 42 44 45 45 43 43 46 47
11 16 17 17 23 26 27 30 31 32 30 33 33 31 29 27 27 28 29 30 32 33 32 30 30 30 30 31 31 34 33 33 32 34 35 35 37 45 45 47 46 47 50
11 16 15 21 27 27 28 31 34 39 34 38 36 33 32 32 32 32 32 32 34 36 36 37 37 36 35 35 36 39 38 32 31 30 35 37 38 37 42 44 45 46 48
18 15 21 27 32 35 35 35 36 41 38 41 35 32 33 35 36 37 38 39 41 42 40 40 41 42 39 39 39 41 44 42 40 38 33 36 39 38 35 36 41 43 43
28 30 32 33 36 39 38 43 40 42 41 48 43 38 36 36 37 37 39 42 46 47 44 44 45 46 47 46 43 44 45 48 46 48 39 38 41 40 40 38 35 38 40
33 32 33 34 35 36 38 40 40 42 43 54 48 43 42 41 42 44 43 44 46 44 47 43 47 47 49 51 52 50 50 49 48 49 55 45 42 42 40 40 40 37 37
31 33 35 35 36 40 40 40 39 42 49 55 46 45 46 45 43 45 46 46 48 52 58 47 49 56 56 55 59 56 54 54 50 45 49 51 48 44 45 41 41 41 39

GFSSE_700_spd_012.txt.gz
Wind_Speed
12 12 13 12 9 10 8 5 5 9 10 9 10 8 8 7 6 5 5 7 9 6 8 10 11 12 10 15 18 18 15 16 18 22 24 21 21 20 17 18 12 12 9
15 16 17 16 9 7 5 2 2 2 7 8 8 7 8 9 8 9 11 12 11 9 11 14 15 12 14 17 16 13 17 16 15 17 24 24 21 21 19 18 16 15 13
13 14 15 13 5 4 2 2 2 4 5 8 9 9 8 9 10 13 14 13 12 14 16 17 18 17 19 20 18 15 19 17 18 21 26 29 22 20 18 18 18 18 16
14 12 12 11 7 6 4 3 4 4 6 7 9 9 9 9 11 14 15 16 19 19 18 20 20 20 20 21 21 20 20 22 22 18 31 31 31 18 16 16 15 18 17
13 9 7 6 6 7 6 8 7 9 8 9 8 7 6 8 10 13 15 18 19 17 19 20 20 20 20 21 21 18 21 26 24 22 24 25 31 21 14 14 13 15 17
7 6 7 8 9 10 11 12 11 12 13 12 12 11 10 10 10 13 16 18 18 18 18 18 19 19 20 21 20 17 22 20 23 21 18 19 21 16 13 14 15 14 16
5 4 6 8 9 11 14 15 17 17 18 15 13 13 13 12 12 12 15 16 17 16 16 18 18 17 18 19 19 19 19 29 31 22 24 25 23 17 13 14 15 15 15
3 6 8 7 7 9 12 14 14 14 12 9 8 7 6 7 6 7 10 11 12 11 10 10 11 14 16 17 20 20 23 25 27 26 27 26 24 20 17 16 16 16 16
6 6 5 4 7 7 8 10 11 9 9 6 3 1 4 6 3 2 2 3 5 7 8 9 9 5 7 12 17 22 25 28 28 26 24 21 29 25 19 19 17 19 19
5 6 2 4 5 7 10 13 8 9 8 8 5 4 8 9 9 8 6 4 5 7 8 8 8 7 10 12 13 17 22 24 25 25 22 22 23 28 23 21 20 19 23
4 2 1 3 6 11 13 14 9 8 7 6 6 7 8 9 10 9 9 9 11 12 13 12 13 13 13 14 15 14 17 21 24 24 23 22 21 26 33 26 25 24 22
2 2 5 11 16 17 17 16 12 9 10 11 10 10 10 11 11 11 12 13 14 14 15 16 16 16 17 17 16 15 15 16 20 23 22 22 23 25 27 29 30 30 26
5 7 9 14 15 15 15 14 14 14 15 15 15 15 15 14 15 16 17 18 19 19 20 20 20 20 20 20 20 19 18 17 18 23 27 29 28 27 30 31 31 29 31
8 9 13 13 16 19 18 17 17 16 18 19 19 19 18 18 19 20 21 23 24 25 25 25 24 25 24 24 24 23 23 22 22 21 23 25 27 30 31 32 32 35 34
8 10 12 13 17 19 20 21 21 20 21 22 23 23 22 22 23 24 25 26 27 28 29 28 28 28 27 27 28 28 28 28 28 27 25 26 28 28 29 30 32 32 35
7 8 10 14 19 21 22 22 20 20 22 23 24 25 26 26 27 28 29 30 30 30 30 30 30 29 29 29 30 30 31 31 32 32 33 32 31 31 32 32 31 28 34
5 7 10 14 19 23 24 24 21 20 23 25 26 27 28 29 29 30 30 31 31 31 31 30 29 29 29 30 30 31 32 32 34 35 36 37 36 34 33 32 31 33 33
7 9 11 15 17 19 21 17 16 19 21 25 25 25 26 28 30 31 31 31 31 30 30 29 29 30 30 30 30 30 30 32 34 36 38 39 40 39 36 35 34 35 37
9 11 15 16 15 17 18 17 22 24 25 32 29 29 27 26 27 29 30 31 31 32 32 33 32 32 31 31 30 30 31 32 34 35 35 36 38 40 41 41 40 41 41
9 14 17 19 17 19 23 23 28 28 31 33 33 34 36 30 28 29 29 29 30 29 28 29 31 32 32 31 32 32 32 31 32 34 35 35 35 37 39 42 44 45 45
6 13 19 20 21 26 28 26 26 27 29 30 32 33 36 32 30 30 30 31 33 34 31 31 30 31 31 31 33 33 33 33 35 33 34 37 37 39 40 40 40 44 47
16 13 14 16 21 26 29 30 31 30 32 30 33 35 38 39 36 36 36 35 37 38 37 37 39 39 39 37 36 32 34 35 34 35 32 34 34 39 43 42 42 42 43
22 17 17 20 25 28 28 30 36 38 40 42 39 42 44 48 40 39 41 42 41 42 42 42 43 45 44 44 45 42 40 40 37 36 38 35 34 33 39 45 45 44 44
22 24 23 24 27 30 32 34 37 40 43 42 44 51 50 45 40 41 45 46 45 44 45 42 44 49 48 49 49 50 48 48 48 46 41 38 36 35 35 34 41 46 48
26 23 25 26 28 32 33 36 38 41 45 49 54 51 46 46 45 44 46 48 49 49 50 48 49 52 53 54 55 54 54 54 56 55 52 46 41 42 40 40 40 42 47
23 24 26 28 30 32 34 37 39 44 49 48 47 48 47 47 47 47 49 51 52 54 53 52 55 57 57 59 61 60 59 61 62 62 61 58 53 44 42 43 44 46 47

GFSSE_700_spd_015.txt.gz
Wind_Speed
11 12 12 12 11 9 9 6 4 3 0 5 5 6 6 5 6 7 8 9 7 9 10 10 10 9 10 10 9 9 8 13 15 18 19 15 15 18 21 15 14 12 9
15 17 17 16 14 9 4 3 1 2 5 6 7 9 10 11 10 10 11 9 10 12 15 15 13 13 14 17 16 15 13 13 14 13 15 17 18 16 18 20 18 16 12
17 17 15 13 10 6 3 2 1 2 4 5 6 8 9 11 13 13 12 12 14 13 15 18 18 18 19 20 22 21 18 18 17 18 17 19 20 22 18 20 18 18 15
14 12 11 10 10 9 7 4 4 4 4 4 7 9 9 11 11 11 14 14 13 14 15 17 20 19 21 22 22 22 20 21 21 22 20 21 25 27 25 19 18 17 17
14 10 9 8 7 4 4 5 6 8 8 9 9 9 10 11 12 13 15 16 16 17 17 19 20 20 22 24 24 24 22 20 22 22 23 21 20 18 24 23 17 15 16
9 7 6 2 1 3 5 8 9 9 10 12 11 11 10 11 14 16 16 15 16 17 17 19 21 22 23 23 24 25 24 22 20 23 19 22 15 13 18 26 23 14 15
6 2 2 4 4 7 8 9 11 12 13 13 12 10 8 7 10 13 15 15 15 14 15 17 19 20 22 22 22 22 21 21 20 24 28 25 15 19 22 20 17 18 14
3 1 4 4 5 6 6 8 10 10 9 9 7 5 4 7 7 7 8 10 11 11 10 9 12 13 15 15 17 18 20 20 22 24 26 25 23 22 24 21 16 15 17
2 4 2 1 3 4 5 7 5 6 6 5 1 1 1 3 3 3 3 4 5 6 7 8 9 10 10 11 13 15 18 23 25 27 28 30 29 25 27 24 19 17 18
5 4 3 2 2 2 5 9 7 5 6 6 4 3 5 5 6 5 5 6 6 8 10 10 11 11 12 13 13 15 17 18 23 26 27 27 26 24 23 30 18 19 18
5 3 3 1 3 7 9 9 8 6 7 8 8 9 10 10 9 10 10 10 11 12 14 14 15 16 17 18 17 17 16 15 17 22 24 24 24 24 21 27 24 24 20
4 2 1 1 7 11 11 10 9 5 6 8 10 11 12 13 14 14 15 15 16 17 17 17 18 19 20 21 21 20 19 18 17 19 22 23 24 23 22 23 32 28 26
4 3 2 8 12 14 14 13 11 10 10 12 14 15 16 17 17 18 19 20 21 22 22 23 23 23 24 25 25 24 23 22 21 21 22 23 24 25 25 24 26 31 29
6 5 8 11 13 15 15 14 13 11 11 12 15 17 17 18 20 21 23 24 26 27 28 29 29 28 28 29 29 29 27 26 26 26 26 27 26 25 23 26 30 31 35
6 5 6 8 11 14 16 16 15 12 12 15 18 20 21 21 22 23 25 27 28 30 32 33 33 32 32 31 31 32 32 31 30 30 30 30 30 29 27 26 26 29 32
4 2 3 6 9 14 15 15 13 13 16 19 23 23 21 21 22 23 25 26 27 29 30 31 31 31 32 32 32 33 33 34 34 34 33 34 35 33 32 30 30 29 30
0 2 4 7 10 13 14 17 15 21 20 20 23 25 24 25 25 25 24 25 27 28 29 30 30 30 30 29 29 31 33 34 36 37 37 37 37 38 38 36 34 32 31
4 6 7 9 14 14 15 19 17 20 20 20 21 24 24 25 25 25 25 25 26 27 28 29 29 29 29 30 31 31 32 34 35 37 38 39 40 40 40 40 39 37 35
7 8 10 13 16 18 21 22 22 22 22 24 26 26 27 28 30 29 29 28 28 27 28 29 29 31 31 31 31 31 31 33 34 36 37 39 41 41 41 41 42 42 40
7 9 14 18 19 20 24 26 24 22 22 23 27 27 29 32 34 36 30 30 33 34 33 33 33 33 33 32 33 32 33 33 34 35 36 37 38 39 40 41 40 41 42
9 9 9 14 17 19 22 24 24 23 23 24 27 28 29 33 38 40 38 33 32 34 35 37 38 38 39 36 38 37 36 35 36 36 36 36 38 38 39 39 41 42 40
14 10 7 11 14 18 21 25 27 28 29 31 33 34 38 41 44 43 41 39 38 39 40 39 41 44 43 41 43 44 47 44 42 37 37 36 37 38 36 36 38 40 42
16 15 13 13 17 21 25 28 30 32 34 37 38 40 43 43 42 42 42 42 42 43 44 44 44 45 48 47 45 46 49 51 48 43 44 42 40 38 35 35 38 37 39
18 19 15 18 21 25 29 31 33 34 36 40 42 46 46 42 45 44 43 41 40 43 45 47 49 50 50 52 53 53 56 55 54 50 49 50 49 43 42 39 38 39 39
22 19 20 22 26 29 33 36 37 38 41 42 46 48 42 45 47 44 43 43 46 46 47 50 54 56 57 54 55 59 59 58 58 56 53 54 53 51 47 46 44 44 44
25 28 28 29 32 35 37 38 40 45 49 48 42 44 46 44 42 44 47 48 48 48 50 51 53 55 55 52 52 57 60 62 61 60 65 63 59 58 57 51 52 51 50

GFSSE_700_spd_018.txt.gz
Wind_Speed
9 12 13 14 11 10 8 6 3 3 2 2 6 4 5 7 9 10 10 9 8 10 12 11 9 11 13 12 12 13 13 14 16 14 14 13 14 15 13 14 15 15 10
14 15 12 12 10 7 3 1 2 3 3 4 6 6 7 10 11 12 11 9 12 14 14 15 14 13 16 18 18 20 18 15 18 17 14 13 12 14 16 13 15 17 17
13 13 11 8 6 4 3 2 1 1 3 5 6 8 10 11 12 13 13 13 15 16 16 17 17 19 20 20 22 22 22 19 18 19 17 16 17 15 17 17 20 17 19
16 14 12 10 8 6 4 3 2 4 6 8 9 11 12 13 12 14 14 14 14 15 17 19 19 21 23 23 23 23 23 21 18 21 22 21 21 18 19 23 20 19 20
17 14 11 8 6 4 2 2 4 6 8 11 12 13 14 14 14 16 16 16 15 16 17 18 19 22 22 21 22 22 22 21 22 20 23 24 21 23 23 18 17 18 19
13 10 8 5 2 3 5 8 9 10 11 12 13 13 12 13 14 16 17 16 16 16 17 18 20 22 23 23 23 21 22 22 21 22 20 23 20 21 19 16 18 18 20
10 7 3 2 6 8 10 11 12 12 12 12 12 11 10 11 12 13 14 15 15 16 17 18 19 19 20 20 20 20 20 20 18 19 21 23 24 24 24 18 14 18 23
7 3 3 6 8 7 8 8 7 6 7 7 6 6 6 7 8 8 8 9 10 11 12 12 13 16 17 16 16 17 17 17 20 21 22 23 23 22 24 19 17 22 22
3 3 5 5 5 5 4 6 4 3 3 5 3 2 5 7 7 8 9 8 8 9 10 11 12 12 13 13 12 14 15 17 19 22 23 26 26 26 27 25 26 26 20
5 4 4 3 4 3 5 6 4 4 5 5 5 5 9 9 11 11 11 11 11 12 13 15 16 17 17 18 17 17 17 18 19 20 22 26 26 25 26 24 24 30 22
5 4 4 2 2 3 3 4 4 3 4 5 7 8 10 13 14 15 15 15 15 16 17 18 19 20 21 21 21 20 20 19 19 19 20 20 23 24 24 23 22 25 30
6 6 3 1 4 6 7 6 6 6 7 8 9 11 13 15 16 18 19 21 22 23 23 24 24 24 25 26 26 25 24 23 22 20 22 20 21 23 24 24 22 25 27
8 5 4 4 6 7 8 9 8 7 7 8 10 12 13 14 15 17 19 21 23 25 27 28 28 29 29 29 30 31 31 29 28 26 26 23 21 21 23 21 22 24 27
7 5 4 5 5 7 11 12 10 8 7 7 8 11 13 15 16 17 19 21 23 25 27 29 30 31 32 32 32 32 32 32 32 32 33 29 27 25 24 24 24 28 28
8 6 3 2 3 6 7 8 7 6 9 10 11 14 14 14 15 17 21 23 24 25 26 26 27 27 29 30 31 32 33 33 34 34 35 33 31 31 30 28 26 24 27
8 5 3 3 4 6 7 9 9 10 13 14 14 16 18 18 19 22 22 23 25 27 28 28 27 28 28 28 29 29 31 33 34 35 35 36 35 34 34 34 33 30 28
7 5 5 7 9 9 11 11 15 17 19 20 19 21 20 20 18 19 20 21 24 25 25 26 27 28 29 30 30 31 31 33 35 35 35 36 38 37 37 36 36 36 34
6 8 9 10 13 13 14 18 21 21 22 21 22 22 23 23 24 25 25 26 27 26 26 27 28 29 30 29 29 31 31 32 34 35 37 37 38 40 40 39 37 36 35
9 11 12 13 15 17 18 21 23 23 23 23 23 23 25 25 26 28 28 26 29 29 30 31 30 32 32 34 35 35 34 34 35 35 36 37 38 39 40 41 40 38 36
11 10 12 14 18 21 21 22 21 23 23 23 24 26 28 28 30 32 32 30 31 30 29 31 33 35 37 37 39 40 39 39 39 39 38 39 41 40 39 39 39 41 37
11 10 12 14 17 20 22 21 22 24 26 27 27 28 32 33 35 38 40 39 37 38 36 36 36 37 37 39 41 42 44 46 46 44 43 43 43 43 45 43 39 39 40
13 15 14 17 17 19 21 24 26 28 30 32 34 35 37 40 41 44 46 40 39 39 38 36 37 40 41 41 44 44 48 47 45 50 48 45 44 45 45 44 44 41 37
17 18 19 19 19 21 25 28 31 34 36 37 37 39 40 44 43 46 42 44 41 38 39 39 41 45 48 47 47 49 48 44 36 35 49 47 44 46 45 47 44 41 39
19 21 22 20 23 27 30 33 36 39 41 43 45 46 45 47 51 45 41 41 42 42 44 45 47 48 50 51 52 51 57 53 56 45 44 50 50 49 50 49 48 48 45
22 22 23 25 27 30 33 36 39 44 46 48 51 53 52 51 47 38 39 43 44 45 46 48 49 52 55 55 54 56 55 62 60 58 60 53 52 53 59 55 52 48 49
25 26 26 28 30 31 36 40 43 45 49 54 53 50 49 47 40 41 41 44 46 48 51 52 55 57 56 54 52 51 50 52 56 55 57 58 55 43 37 57 57 57 56

GFSSE_700_spd_021.txt.gz
Wind_Speed
9 11 14 15 11 10 8 6 5 5 4 4 3 5 6 7 8 9 11 10 12 11 11 12 12 12 12 13 15 16 16 16 15 15 16 16 16 14 12 15 15 12 11
9 13 15 14 10 8 7 5 6 6 5 5 5 6 6 9 11 12 10 10 15 17 17 15 17 16 15 16 17 19 20 20 19 17 17 17 18 16 15 16 16 14 14
10 12 13 13 11 8 6 5 4 3 4 6 8 9 11 12 13 15 14 15 18 18 18 18 19 18 18 19 20 21 21 21 19 17 16 17 15 15 15 15 18 20 20
12 13 12 10 7 5 4 3 2 4 6 9 11 13 14 15 15 15 16 17 17 17 19 19 21 22 21 20 21 21 20 19 17 15 15 18 19 21 21 21 22 20 23
14 12 11 9 7 4 3 4 6 9 11 13 15 15 15 16 16 16 16 16 17 18 18 20 21 21 22 21 21 20 21 19 17 16 17 16 21 20 23 23 24 24 22
13 10 8 5 4 5 7 9 10 12 12 13 13 13 13 14 14 15 16 16 17 18 19 20 20 22 23 23 23 23 21 18 16 17 14 22 22 25 21 22 22 25 22
10 8 5 5 6 9 11 12 12 11 9 9 10 10 10 11 12 13 13 14 15 16 17 19 20 21 20 19 17 17 16 16 15 16 14 17 12 21 23 22 22 19 20
8 5 5 7 9 11 9 7 7 5 5 6 7 7 7 8 10 11 12 13 13 13 14 15 16 16 17 16 16 15 14 14 14 15 18 22 24 23 19 20 22 21 18
6 5 7 9 8 7 5 7 6 5 5 7 6 6 8 11 12 13 15 15 15 15 15 16 17 17 17 17 16 16 17 17 17 19 19 23 22 22 23 25 25 25 22
7 9 9 6 6 6 6 7 6 7 8 7 6 7 10 12 14 15 15 16 16 16 17 19 20 21 21 21 21 21 21 21 21 22 24 22 21 20 22 23 23 22 25
11 8 6 3 4 5 4 4 5 5 6 7 8 9 11 14 16 18 17 19 20 21 22 22 23 23 24 25 25 24 23 24 23 23 27 23 20 21 22 21 22 23 22
9 7 5 4 4 2 2 4 6 7 8 9 10 11 13 14 16 18 19 20 22 23 25 26 27 28 29 28 31 28 27 27 25 26 30 24 23 22 21 21 22 22 20
8 6 6 6 5 1 4 5 5 5 5 6 6 7 11 13 15 16 19 21 23 24 26 29 30 30 31 31 31 33 32 32 31 30 34 27 25 24 23 21 21 21 19
8 6 7 7 4 1 5 8 7 7 7 9 12 13 14 16 17 18 19 21 24 26 27 27 28 30 31 31 31 31 32 31 31 32 37 31 30 29 26 24 23 22 24
9 8 8 5 3 3 3 5 6 7 10 12 15 18 19 19 20 21 22 23 23 24 25 26 26 27 29 30 29 30 29 29 29 29 33 33 32 32 31 30 29 27 25
9 9 10 8 7 7 7 9 11 11 14 17 21 21 21 22 23 22 20 21 21 22 24 26 26 26 26 27 29 29 28 29 31 30 31 35 31 32 32 32 31 31 30
10 10 12 11 12 13 14 16 17 19 19 21 23 26 26 25 24 22 22 25 25 24 26 26 26 27 28 29 30 32 32 31 30 31 31 32 36 34 34 35 34 33 32
11 11 13 14 16 17 19 20 21 23 23 23 24 24 25 25 24 23 23 25 25 23 25 27 29 31 31 32 35 35 34 36 37 36 35 34 34 37 38 36 36 35 35
10 13 15 18 18 21 24 23 25 25 24 23 25 26 29 29 29 29 28 28 30 29 28 30 30 33 35 35 36 37 39 40 39 39 41 40 38 37 37 43 38 36 37
16 16 19 20 20 23 26 25 26 26 24 26 29 30 31 32 35 36 37 36 35 38 37 37 37 34 35 35 36 40 40 42 44 44 45 45 46 46 41 43 43 40 38
18 18 15 17 19 20 24 26 27 27 28 30 34 38 37 39 41 43 43 42 41 44 41 40 38 36 35 35 39 40 41 41 44 46 46 48 48 49 50 47 47 41 46
13 14 15 16 17 19 24 26 27 29 32 36 37 41 45 48 47 49 49 51 47 49 46 42 39 38 39 38 42 45 49 47 44 42 43 44 44 45 46 47 48 44 42
15 18 21 22 26 24 23 30 32 34 37 37 43 45 44 47 50 54 55 53 47 45 43 41 41 42 43 41 44 45 45 48 41 32 36 44 43 44 46 47 51 50 49
18 21 24 27 29 28 28 34 35 37 37 42 47 50 52 50 52 51 49 48 45 41 44 44 43 44 47 49 52 51 46 44 51 50 46 39 43 43 39 48 44 53 52
23 27 29 32 33 33 34 35 37 40 42 44 49 56 55 50 50 52 50 46 42 44 46 46 47 49 53 56 57 58 56 51 50 54 58 52 46 45 42 43 39 41 49
31 27 29 28 30 33 34 39 43 46 48 51 53 54 55 51 49 48 49 48 49 50 49 55 57 57 58 60 58 57 55 54 51 51 53 54 53 53 58 47 55 43 44

GFSSE_700_spd_024.txt.gz
Wind_Speed
7 12 14 14 10 10 8 6 3 1 2 3 6 5 5 5 7 9 11 10 11 12 13 14 14 13 12 14 14 14 15 15 15 16 16 14 14 15 13 12 13 13 13
6 14 14 12 9 8 5 2 3 4 4 5 5 6 6 8 10 12 13 13 15 16 18 19 18 17 16 16 18 19 18 18 17 16 15 17 17 15 17 13 16 15 15
5 11 14 13 9 7 5 5 3 3 4 5 7 9 11 12 13 14 15 15 17 17 18 19 18 17 18 19 19 20 21 20 16 15 13 15 17 14 9 10 15 16 16
7 11 13 12 9 6 4 2 4 4 7 9 11 13 14 14 16 16 16 17 17 18 18 18 18 18 20 19 20 21 21 19 18 17 14 14 14 16 12 15 18 17 19
5 9 10 9 7 4 4 6 7 9 11 13 14 15 14 14 14 15 16 17 18 19 19 20 20 21 21 21 22 21 21 20 20 19 15 17 15 16 17 15 17 19 20
9 9 8 5 4 6 8 11 14 14 13 13 12 11 10 9 9 10 12 13 14 15 16 17 19 21 22 22 21 21 20 19 17 15 15 19 14 29 15 17 18 18 18
10 7 5 4 7 10 12 12 11 9 7 6 5 6 7 7 8 10 11 13 15 15 15 15 16 17 17 17 16 16 16 15 13 14 17 18 14 23 9 15 20 22 20
6 4 4 7 10 10 10 7 7 4 3 5 7 7 7 6 9 12 13 15 16 16 16 17 16 16 17 16 16 15 14 14 14 15 18 19 17 19 16 16 17 20 19
4 6 8 10 9 8 4 6 7 6 7 8 8 9 9 11 13 13 14 15 16 17 18 19 20 20 21 21 20 20 19 20 19 19 22 22 20 17 18 19 21 21 21
7 11 10 10 6 3 8 8 8 8 8 9 9 10 12 13 15 15 16 18 18 19 19 20 21 22 23 23 23 23 22 22 22 23 27 25 19 19 16 17 19 20 20
10 9 9 8 7 9 4 6 6 7 8 9 10 12 14 14 15 15 15 18 19 20 22 23 24 25 26 26 26 25 25 27 25 24 29 29 23 22 21 20 19 19 19
9 7 7 5 4 5 7 6 4 6 6 8 9 10 14 15 15 19 20 19 20 20 22 24 25 26 28 28 31 30 28 29 28 28 33 31 26 26 25 23 22 21 20
4 1 10 5 3 2 3 4 8 10 10 10 9 14 16 18 20 22 24 26 27 27 28 26 25 25 25 25 24 26 28 27 27 27 32 33 28 27 26 25 25 23 21
10 9 13 4 5 3 2 4 5 6 9 13 15 17 20 23 23 24 24 25 25 24 24 25 24 24 25 25 23 22 23 24 24 24 28 28 26 26 27 26 25 25 24
9 9 13 9 8 4 4 6 8 10 13 15 18 20 21 23 24 27 27 29 28 28 28 26 26 27 27 28 29 28 25 24 24 23 28 28 28 27 26 25 26 25 25
11 12 16 19 9 7 10 11 14 16 18 20 22 23 24 26 26 28 27 26 25 25 24 23 23 22 23 24 24 27 28 26 26 28 28 27 26 25 28 29 28 26 26
10 11 18 15 20 11 13 16 18 22 21 23 26 25 25 28 26 26 25 26 27 26 26 24 25 27 29 31 32 33 34 31 30 27 28 31 29 29 27 27 28 29 29
9 19 6 13 25 19 18 22 23 26 25 25 27 28 29 30 27 29 29 32 33 31 30 29 29 33 36 35 35 36 37 37 37 34 33 29 32 32 32 31 30 29 28
18 19 21 21 25 22 22 24 27 27 28 27 30 28 31 35 33 33 36 38 39 41 40 40 40 39 40 40 37 37 38 38 39 40 41 36 36 39 41 36 37 33 31
22 21 17 20 24 24 24 23 27 30 30 30 33 31 37 37 38 39 42 44 45 45 46 48 49 48 45 44 44 41 38 37 37 40 42 44 44 43 43 48 45 40 37
19 20 22 22 19 18 21 24 25 29 29 31 33 37 40 38 43 46 47 48 49 49 51 52 49 49 45 43 45 44 43 41 40 39 40 42 44 44 45 46 48 48 43
18 17 15 18 19 20 25 24 25 28 31 34 35 40 48 46 49 48 53 53 53 52 49 45 44 46 44 41 42 44 47 47 42 40 41 38 38 41 40 44 46 44 47
13 15 18 22 24 26 28 30 29 31 34 36 41 44 47 45 47 51 52 50 50 50 47 44 42 43 46 43 42 44 47 50 49 46 44 41 39 32 42 39 45 48 46
16 19 22 27 31 32 31 32 33 34 38 40 43 45 46 47 48 50 49 50 51 51 49 48 48 48 47 48 49 48 48 49 53 59 53 48 44 44 38 38 45 46 35
20 21 26 29 32 35 31 30 31 34 38 41 43 46 46 47 49 49 50 51 51 51 51 53 52 51 51 51 53 58 56 50 44 49 60 59 56 50 53 57 55 48 52
29 32 30 27 26 29 34 32 34 37 41 43 44 46 46 46 46 45 46 48 48 51 50 51 53 53 54 52 48 49 51 53 51 45 45 51 55 52 49 53 57 57 46

GFSSE_700_spd_027.txt.gz
Wind_Speed
11 15 12 11 11 9 6 4 2 0 2 3 3 2 4 5 7 9 10 11 14 14 13 13 14 16 14 14 15 14 14 14 13 12 13 13 9 8 11 11 11 8 7
12 15 13 13 9 9 5 2 4 4 3 4 4 5 7 10 11 12 14 14 16 17 17 17 16 16 16 16 17 17 17 17 17 16 13 12 11 8 11 11 10 9 8
10 14 14 12 9 8 4 5 4 3 4 5 8 10 13 14 15 15 16 17 17 17 16 16 16 17 17 16 17 18 18 18 16 13 12 16 10 11 13 6 11 8 10
9 13 13 12 8 6 4 3 4 5 7 9 12 15 15 15 15 15 15 15 15 16 17 16 16 16 16 17 18 19 19 18 17 14 14 17 13 13 11 13 8 13 10
10 12 12 10 7 4 3 5 8 10 13 15 14 12 10 9 9 9 10 10 11 13 14 15 15 16 16 17 18 18 19 19 16 14 16 17 16 15 17 21 7 11 13
8 10 9 7 3 4 7 11 13 12 10 8 6 5 6 5 5 7 9 10 11 13 14 14 14 14 14 15 15 15 13 13 13 12 14 15 15 12 12 16 10 13 13
8 8 5 2 4 9 9 8 6 6 5 4 6 7 7 7 7 11 12 13 15 14 15 15 16 16 15 15 15 15 15 14 13 13 12 14 15 14 13 10 14 15 15
6 3 3 5 8 8 6 5 7 6 6 7 8 8 9 9 10 13 14 15 15 15 16 16 16 17 17 17 17 17 16 16 17 19 18 17 18 12 12 13 15 15 15
4 5 7 9 8 6 3 4 5 5 6 8 8 9 10 12 13 14 15 16 17 17 18 18 19 19 19 19 19 19 19 19 19 22 22 21 21 21 18 16 15 17 18
6 8 10 7 6 5 5 6 5 6 6 8 9 11 13 14 13 13 16 18 19 20 21 21 22 23 23 23 22 22 22 23 22 23 24 23 21 19 19 17 16 17 19
12 11 8 4 3 4 5 5 6 6 8 9 11 11 10 12 14 16 17 19 20 22 24 25 25 26 26 25 26 23 23 25 23 26 25 26 22 20 20 19 18 18 18
11 9 8 5 5 5 4 4 5 5 6 7 9 12 16 19 21 22 24 24 25 25 25 24 23 23 23 22 22 22 21 21 22 24 25 25 23 21 20 20 20 19 19
14 7 6 5 6 7 7 6 5 6 8 10 13 17 20 20 23 23 24 26 26 28 27 26 25 25 23 20 18 19 21 21 21 22 22 22 23 19 20 20 20 21 21
17 13 12 9 7 4 2 6 9 12 14 16 18 19 22 23 23 25 27 28 29 28 27 26 26 24 22 22 21 19 17 18 19 22 23 22 21 19 18 18 18 20 22
14 15 18 7 7 7 5 5 7 12 14 18 18 20 24 25 25 26 26 26 26 27 28 27 26 24 22 21 22 23 25 22 21 23 24 24 24 22 20 19 18 18 19
15 22 19 13 14 12 6 9 9 13 16 20 21 22 24 27 26 25 25 25 24 27 28 28 29 29 30 31 31 33 33 32 31 28 29 26 24 25 23 21 20 19 19
13 22 14 12 17 15 7 16 17 15 21 24 27 27 26 29 30 27 29 28 28 31 32 32 31 32 33 34 36 37 37 35 35 35 35 33 29 26 26 24 23 22 21
16 21 10 20 31 10 14 21 20 19 21 24 28 31 30 33 32 29 32 31 33 38 37 38 40 40 41 41 41 40 41 41 39 40 39 40 40 33 29 28 29 27 25
19 20 26 27 16 16 23 21 20 22 24 26 28 32 34 36 36 35 36 36 39 41 40 41 44 45 47 44 42 43 42 42 42 43 42 40 40 42 41 35 33 32 30
24 23 27 28 27 26 26 22 23 24 25 28 31 32 34 37 37 38 44 44 46 46 46 45 46 45 47 47 46 46 43 42 43 43 40 38 38 40 42 41 40 39 36
29 26 24 23 26 23 23 21 24 29 28 27 28 29 32 36 39 46 44 47 50 49 48 46 45 45 46 43 45 45 45 44 42 41 41 39 37 35 37 40 40 41 39
27 22 21 19 17 22 25 28 29 27 26 27 31 36 40 45 46 48 51 51 49 49 48 47 46 48 47 43 43 44 48 47 45 42 40 38 39 41 38 37 44 41 42
15 15 17 19 20 24 29 31 31 31 31 30 31 34 37 42 45 49 49 46 46 47 48 48 48 46 46 45 43 44 49 52 54 47 44 44 43 41 40 42 42 44 45
14 17 21 23 26 28 28 29 31 32 32 32 34 36 40 43 44 44 44 45 46 46 47 47 49 49 49 49 46 42 42 46 52 56 50 48 48 46 43 45 46 43 41
17 19 22 27 31 33 33 32 31 32 34 37 43 44 43 42 42 41 43 44 44 45 47 49 51 53 53 53 52 49 48 43 42 46 56 55 49 46 47 46 49 53 55
22 26 28 27 27 27 31 36 40 42 42 43 43 42 41 40 40 42 43 44 46 47 48 49 50 49 47 46 43 40 39 39 36 34 37 42 44 44 42 44 46 48 53

GFSSE_700_spd_030.txt.gz
Wind_Speed
11 13 12 12 11 9 7 4 2 2 2 3 3 4 5 6 9 11 12 14 15 16 16 15 17 18 17 14 14 13 12 14 15 16 14 14 14 12 8 9 9 9 8
11 13 14 12 11 9 6 2 5 4 4 3 4 6 9 12 14 15 15 15 16 17 18 18 18 16 17 17 15 14 15 15 15 17 16 13 13 10 10 10 13 8 9
12 15 12 12 10 8 4 5 5 5 5 6 8 11 14 16 16 16 15 15 15 15 15 16 16 15 15 15 15 16 16 16 16 17 17 16 12 10 6 16 7 9 10
14 17 14 12 7 6 5 4 4 6 9 11 13 16 15 13 12 12 11 10 10 10 11 11 11 12 13 14 16 17 17 17 17 18 19 18 13 11 10 14 9 13 14
14 16 12 11 7 6 4 6 9 12 15 16 15 11 7 6 6 6 6 7 8 10 12 12 12 12 10 10 11 12 12 13 14 15 15 14 12 11 13 15 17 12 13
13 12 10 8 6 4 6 11 13 12 10 7 3 4 6 8 8 7 10 10 11 12 13 13 12 12 10 10 10 10 10 11 10 10 10 10 10 9 9 11 14 13 12
14 12 10 7 4 6 11 9 5 3 1 3 6 8 10 10 10 12 13 14 15 15 15 15 14 14 13 13 13 13 13 13 13 12 11 11 12 12 11 12 9 10 13
11 9 6 4 6 9 7 2 4 4 4 6 9 11 11 11 11 12 12 13 14 15 16 16 16 16 16 17 17 17 17 17 17 16 15 14 13 14 14 14 13 15 13
9 6 4 6 8 7 2 4 5 5 7 9 9 9 10 11 12 13 15 17 18 18 19 19 20 20 19 18 17 18 19 19 20 18 18 17 15 14 13 13 13 14 16
7 5 5 7 6 2 4 5 6 7 7 7 8 9 10 12 13 14 16 18 20 21 22 23 23 22 21 20 19 17 17 17 18 18 19 20 18 17 17 16 15 14 14
5 6 5 5 3 3 3 4 4 5 7 8 10 11 12 14 17 18 18 19 21 22 23 22 22 22 22 21 20 17 16 15 17 17 16 17 17 16 17 17 17 17 17
4 4 2 2 2 3 5 4 6 7 8 9 12 14 17 20 20 21 21 22 23 24 24 23 22 21 21 19 18 17 16 16 16 17 15 16 17 15 15 17 18 19 19
5 10 9 6 4 4 1 2 1 2 6 10 14 17 20 21 21 22 24 24 25 24 22 21 21 21 21 20 17 17 17 16 19 21 20 18 17 16 16 18 18 19 21
6 12 15 11 7 4 5 5 6 6 8 12 16 20 21 23 23 24 26 26 25 26 24 22 23 24 24 24 23 21 22 22 23 24 24 24 22 21 17 17 18 20 21
6 15 15 9 8 8 9 9 10 14 14 15 17 20 22 24 25 27 30 27 27 27 27 25 26 27 28 27 27 28 28 28 28 28 27 27 28 28 26 22 19 19 21
7 11 10 8 8 10 10 7 16 19 21 18 19 21 22 23 26 28 31 29 29 31 30 30 32 33 31 31 30 32 33 34 34 33 33 33 30 28 28 26 24 21 21
7 11 13 16 10 14 23 17 14 17 22 23 23 23 24 26 28 27 29 29 30 33 35 35 38 40 38 36 37 36 37 38 39 39 38 39 39 38 33 29 25 22 23
9 12 14 15 12 14 10 13 17 16 21 26 26 27 29 29 29 30 31 32 35 38 40 42 44 44 45 44 42 40 43 43 42 41 41 40 41 41 41 38 32 29 26
17 16 17 17 20 20 25 23 20 16 21 24 27 28 29 28 31 33 34 37 41 44 44 45 47 47 48 46 45 43 41 40 41 42 41 39 40 43 44 43 40 36 32
18 18 21 18 18 22 23 20 16 19 23 26 31 33 32 34 36 37 38 39 45 46 46 49 48 47 46 48 47 46 44 42 41 40 41 40 41 42 44 46 46 42 37
21 21 20 23 24 21 15 14 17 23 26 28 31 32 34 35 38 39 40 45 48 49 51 51 50 47 47 48 48 47 44 42 42 41 40 42 43 44 43 44 44 46 46
23 26 26 19 16 16 16 19 21 23 24 25 28 31 33 36 38 40 44 47 49 50 50 49 47 47 46 46 47 48 52 47 44 42 43 43 45 46 45 43 42 43 44
24 14 15 17 19 20 23 27 28 28 28 28 31 33 34 36 39 43 46 47 47 46 46 48 47 46 47 47 48 48 50 54 55 50 45 44 44 45 46 45 44 44 44
19 19 18 20 23 26 26 24 23 23 25 30 32 35 38 40 40 40 40 44 46 46 47 46 48 48 48 48 48 49 49 49 52 58 54 50 47 46 48 49 48 46 48
21 23 24 25 27 27 27 28 32 36 37 37 38 40 40 40 42 42 42 46 47 47 48 48 49 50 49 49 48 48 49 43 35 42 51 49 43 39 42 46 47 48 49
19 21 22 26 29 30 32 35 38 41 42 42 42 43 44 43 43 42 47 48 47 46 46 46 47 48 47 46 43 40 38 35 37 38 37 37 34 28 27 31 36 39 43

GFSSE_700_spd_033.txt.gz
Wind_Speed
13 15 12 12 10 8 8 6 3 3 4 4 5 6 7 9 12 14 14 15 16 17 18 19 18 18 17 16 16 16 16 17 16 17 16 15 13 11 10 8 8 10 10
11 12 12 11 10 9 7 2 4 4 4 4 5 7 10 14 16 17 18 17 17 18 17 17 17 16 15 14 14 14 15 17 17 17 16 13 11 10 10 11 8 11 9
13 13 12 11 11 8 5 4 4 4 5 7 9 11 15 18 17 16 15 14 13 11 11 12 13 13 12 12 13 14 15 16 17 17 16 15 11 10 11 11 12 7 9
15 13 12 12 8 6 4 5 4 7 9 11 14 16 15 10 9 8 7 7 7 8 10 11 10 10 9 8 9 10 11 13 13 15 13 11 10 9 9 12 11 8 9
16 16 13 11 6 5 6 6 9 12 14 14 12 9 6 7 7 8 9 10 10 12 12 12 12 12 12 11 10 11 11 10 10 9 8 6 6 6 6 8 13 14 18
16 16 12 10 8 7 6 9 12 10 8 5 5 6 8 9 9 10 11 12 12 12 12 13 13 13 13 14 14 14 14 14 12 10 7 7 7 5 4 4 8 9 11
15 15 12 10 7 4 7 9 5 3 4 5 7 7 8 9 10 11 12 12 13 14 14 14 14 14 14 14 14 15 15 16 14 13 12 10 9 10 9 8 7 7 10
13 14 12 7 3 5 7 1 2 3 4 5 6 8 10 10 12 12 13 14 14 14 15 16 15 14 13 13 14 15 17 17 15 14 14 14 12 11 11 12 10 9 11
15 10 6 3 5 6 2 2 3 4 6 8 9 12 14 14 15 15 15 15 16 17 18 19 19 19 18 16 15 15 16 16 17 15 15 15 16 15 14 14 14 12 13
9 5 4 5 5 3 1 3 3 6 8 10 12 13 14 14 15 16 17 18 19 20 21 21 20 20 19 19 17 15 15 15 15 16 16 16 16 16 16 17 18 18 15
3 4 7 6 3 0 3 3 6 7 8 8 9 10 12 15 16 17 19 21 23 23 24 23 21 19 18 16 15 15 15 15 13 13 14 16 16 16 18 19 22 21 20
2 1 2 2 1 2 3 5 5 5 5 5 7 9 13 16 17 18 21 23 24 25 24 25 24 21 19 19 18 16 14 15 16 16 15 15 15 15 17 20 22 22 21
10 9 8 4 5 5 5 2 4 4 5 7 9 12 15 18 19 19 22 27 26 25 25 25 24 23 22 22 23 22 22 21 20 20 21 20 19 18 16 17 20 23 24
8 11 11 7 7 3 2 0 1 5 7 10 12 16 17 18 20 21 24 26 27 27 28 28 27 27 27 28 29 28 28 28 27 27 26 25 24 24 23 19 20 21 23
5 8 10 12 7 13 8 7 9 14 13 14 16 19 19 20 22 24 25 26 27 29 31 32 32 32 33 35 36 33 32 33 34 34 34 34 30 27 27 26 23 23 24
5 5 10 12 5 9 9 15 16 15 19 18 19 21 22 21 25 28 28 28 29 31 33 35 37 39 40 40 40 38 38 38 39 39 39 39 38 38 35 31 29 27 27
1 4 9 10 7 8 9 8 11 15 19 19 20 22 23 23 28 30 32 34 34 34 36 38 40 43 42 43 43 43 43 43 42 41 42 43 42 41 41 40 36 30 29
8 12 14 12 13 12 7 13 15 20 22 21 21 24 25 29 33 35 35 35 36 37 40 41 44 44 45 47 47 47 46 45 44 45 45 46 45 45 43 41 41 39 33
14 16 25 22 18 18 10 14 18 22 23 25 26 28 31 34 35 35 37 37 39 41 42 44 47 50 51 51 52 51 48 46 45 46 45 45 45 46 45 45 43 43 41
17 20 26 20 21 16 17 21 19 21 23 25 27 30 32 34 35 37 39 41 42 45 46 47 51 53 56 57 55 53 50 48 47 45 45 45 45 45 45 45 45 44 43
17 18 19 21 21 23 18 16 20 22 24 25 28 30 31 34 35 37 41 44 45 47 51 54 56 55 55 54 54 53 51 49 48 46 45 46 46 45 46 47 46 46 45
18 20 22 21 15 15 17 18 21 23 22 22 25 28 32 35 38 41 43 46 49 51 51 50 50 51 51 52 53 54 56 54 51 48 45 45 45 47 47 48 49 48 48
19 19 17 15 14 15 17 19 19 19 22 24 28 32 35 37 39 41 43 45 45 47 47 48 50 51 52 51 50 50 52 55 57 50 47 48 49 48 48 50 50 50 49
12 11 13 16 18 19 17 15 15 19 24 30 32 34 35 37 40 42 46 47 49 49 48 50 51 51 51 52 50 48 47 50 53 57 52 43 42 44 49 49 50 51 50
13 14 16 19 21 22 26 30 35 36 37 40 39 39 40 42 44 47 48 48 48 48 51 52 51 51 52 52 52 52 51 49 46 46 50 47 38 35 32 36 42 44 46
13 12 17 24 24 29 35 41 41 40 41 41 40 41 43 46 48 48 46 45 46 46 48 50 50 50 48 46 46 46 45 44 42 42 43 42 42 33 29 28 32 34 37

GFSSE_700_spd_036.txt.gz
Wind_Speed
20 18 16 15 13 11 9 6 3 2 4 5 5 6 8 10 13 15 16 15 15 16 17 16 15 15 15 16 16 15 14 13 12 11 10 10 11 8 8 9 10 8 9
17 18 16 14 11 10 9 6 1 3 4 4 6 8 11 14 17 16 14 13 13 13 12 12 13 13 13 14 14 15 15 14 14 11 10 8 9 9 9 10 10 11 9
17 16 15 12 11 10 8 1 3 2 3 6 8 10 13 14 11 10 10 9 9 9 10 12 11 11 11 12 12 13 13 12 12 11 9 9 9 8 9 12 10 10 9
17 16 14 13 11 8 5 2 2 5 8 10 11 13 9 7 7 8 10 10 10 11 12 12 12 12 12 12 11 11 11 11 9 8 6 4 4 4 6 9 10 7 9
18 17 14 12 9 6 3 3 6 11 11 8 5 4 5 7 8 9 11 11 11 12 12 13 13 13 12 12 12 12 12 11 11 10 7 4 1 1 3 5 10 11 14
18 16 14 11 6 4 3 5 9 7 5 7 6 6 8 9 10 11 11 12 12 12 12 13 13 14 15 14 14 13 13 13 11 10 10 8 5 4 4 5 7 10 13
16 15 12 9 7 4 4 6 2 3 4 5 7 9 11 11 11 11 12 12 13 13 14 14 14 14 14 15 15 15 15 15 14 12 11 10 9 9 9 9 10 11 11
14 13 11 9 5 2 5 2 2 3 5 7 10 11 11 12 12 12 12 13 14 14 15 16 16 15 14 14 14 13 13 14 14 14 14 12 12 11 12 11 12 14 14
15 13 10 6 4 4 3 2 4 6 8 10 11 11 11 11 12 13 14 15 16 17 17 18 19 18 17 15 14 12 12 11 12 13 14 16 15 14 15 15 14 15 16
15 11 6 4 4 3 3 5 7 8 10 9 9 9 10 11 12 13 14 16 19 20 20 21 20 20 18 17 17 15 13 12 11 11 12 13 15 16 17 18 18 18 18
10 6 5 5 3 5 5 7 9 10 8 6 6 7 9 11 13 13 14 16 20 23 23 23 23 22 20 18 18 17 16 15 15 13 12 12 14 15 17 19 20 21 22
4 6 7 5 6 6 7 9 8 8 4 3 4 7 11 14 15 15 16 18 23 24 23 25 25 24 23 22 22 24 24 21 19 18 19 18 17 17 17 18 20 22 22
6 5 4 6 7 9 10 7 5 3 1 3 6 10 13 16 17 19 19 20 23 23 24 26 26 26 26 25 27 29 31 31 28 26 25 25 24 23 23 22 21 21 22
7 8 9 7 9 8 6 5 3 2 4 6 9 12 15 17 19 20 21 22 23 25 26 26 27 29 30 30 31 33 34 35 34 32 31 32 31 30 29 28 27 26 25
3 8 9 9 10 6 6 3 3 5 6 9 12 15 17 19 20 23 26 27 26 28 29 30 30 30 33 33 36 36 36 35 34 36 38 38 38 38 37 34 33 31 30
3 4 4 4 5 6 4 4 4 4 8 12 16 20 21 21 24 26 30 30 30 32 32 32 33 35 38 39 39 38 37 37 38 39 39 40 40 41 42 43 41 38 37
3 5 7 10 9 10 8 7 6 10 12 16 19 21 22 24 27 30 32 32 32 34 35 36 38 40 42 43 44 42 41 43 45 45 45 44 43 43 43 44 44 43 41
7 13 19 19 18 17 13 5 9 11 15 18 20 22 24 26 28 30 31 32 35 37 39 40 41 42 46 48 47 47 48 49 50 48 47 47 47 46 45 45 45 44 44
12 17 23 26 27 29 10 22 8 13 15 18 22 24 26 28 29 31 32 35 39 42 44 46 48 51 50 52 53 54 53 50 49 47 46 45 46 48 48 47 47 46 45
16 19 25 32 36 21 17 11 10 14 18 21 23 25 27 28 30 33 37 40 42 45 48 51 53 54 56 58 57 55 54 52 49 48 47 46 47 47 48 49 48 47 47
21 19 16 21 24 13 8 14 16 18 19 21 24 27 29 31 33 36 39 43 46 49 52 54 55 55 54 55 56 55 52 53 51 50 49 49 49 49 50 50 48 49 49
12 13 17 18 20 12 10 13 16 20 21 22 24 26 30 34 37 39 42 46 48 47 47 48 49 50 50 52 55 56 57 56 54 48 47 48 49 50 50 51 52 51 50
11 11 10 11 12 15 16 15 17 20 21 23 26 30 33 35 36 39 42 45 47 51 52 52 52 52 53 52 52 52 53 55 55 51 47 46 46 47 49 51 52 50 49
5 7 9 11 13 14 14 19 26 32 34 35 36 36 39 42 45 45 45 46 47 48 48 49 51 52 54 55 55 54 54 55 53 56 52 46 39 36 38 42 46 48 49
7 6 7 15 20 21 23 29 35 39 42 41 40 41 43 44 44 46 48 49 49 51 52 51 50 51 51 47 44 43 42 42 43 45 48 47 49 42 35 34 36 39 41
8 15 25 23 24 26 29 35 38 42 42 42 42 42 42 43 44 46 46 49 51 49 49 49 50 48 45 44 40 36 35 38 41 45 45 44 45 44 40 34 31 33 33

GFSSE_700_spd_039.txt.gz
Wind_Speed
23 21 19 17 15 13 11 10 6 1 1 3 4 6 7 10 14 14 11 10 10 10 11 11 12 13 12 12 12 12 12 11 9 8 8 9 9 8 8 9 8 8 7
22 22 20 17 15 13 10 7 3 1 2 3 4 6 9 14 14 11 10 9 9 8 9 11 11 12 12 11 11 10 10 10 8 8 8 9 10 10 10 10 10 9 8
22 21 19 17 14 11 9 3 1 1 2 4 6 8 12 9 7 8 10 9 9 8 8 9 9 9 11 11 9 9 9 8 7 6 6 10 10 12 12 11 10 9 9
21 21 18 16 14 11 6 1 1 3 5 7 8 6 2 4 6 7 8 8 9 9 9 9 9 10 9 9 9 8 7 8 7 6 5 4 4 7 9 11 10 11 11
22 20 17 16 13 9 5 2 2 6 6 2 2 4 6 6 7 8 9 10 10 10 10 10 11 10 11 10 10 10 9 8 8 6 5 3 4 5 7 8 9 10 11
22 19 17 14 11 7 5 1 4 1 4 7 7 8 7 8 9 10 11 11 11 11 12 12 13 12 12 11 11 11 10 9 8 8 7 6 6 7 8 9 10 11 12
21 18 16 12 9 6 2 2 1 6 6 7 8 9 10 10 9 9 10 10 12 13 15 16 18 19 17 15 13 12 11 11 10 9 9 9 9 9 11 13 14 13 13
19 16 13 10 8 5 3 3 5 5 8 9 11 11 10 10 9 10 10 11 12 14 16 18 20 21 20 18 15 14 13 13 11 10 10 11 11 12 13 13 15 17 16
19 14 12 11 7 4 3 5 6 9 10 12 10 10 9 8 8 7 8 10 13 16 17 18 19 21 21 20 17 15 13 13 13 12 12 12 13 13 15 17 17 18 19
17 15 13 9 5 4 6 7 9 11 12 10 8 7 7 6 7 8 9 12 15 18 19 19 19 19 18 18 17 17 17 17 16 14 12 12 13 14 14 16 18 20 21
17 13 9 5 5 7 9 9 11 12 10 7 5 4 4 6 8 10 11 12 15 19 20 21 21 20 19 19 18 18 19 19 19 18 18 18 17 16 16 16 17 20 21
10 7 6 6 9 10 11 12 12 10 6 3 2 2 5 9 10 11 12 14 17 21 22 22 22 22 22 22 22 22 22 23 23 22 21 20 22 22 22 22 20 20 22
4 4 7 10 12 14 15 13 11 7 4 1 3 6 9 12 13 14 16 17 20 22 23 24 23 24 25 26 27 28 29 29 29 29 27 26 25 25 26 27 27 25 25
9 10 11 13 15 16 15 13 11 7 5 4 6 10 13 15 16 19 20 21 23 25 25 25 25 26 28 29 31 32 33 33 33 31 30 30 30 31 31 31 31 32 30
11 12 13 13 13 14 15 14 11 7 7 8 10 12 14 16 18 21 23 25 26 26 26 27 27 29 31 33 35 35 35 36 35 34 33 33 35 35 35 35 36 35 36
7 5 8 10 11 13 13 10 7 6 8 10 12 14 16 17 19 23 24 27 29 29 29 30 31 33 35 37 37 38 40 41 40 40 41 41 42 41 40 39 39 40 40
9 9 11 13 15 15 14 11 1 12 12 16 16 18 17 18 22 25 27 30 31 33 35 36 38 39 40 40 41 44 45 45 46 47 47 47 45 45 44 42 41 41 42
15 16 18 19 19 19 21 21 8 28 11 14 15 19 19 21 25 28 30 33 35 36 39 40 41 43 45 47 47 48 49 50 50 50 49 48 47 46 45 46 46 45 44
15 17 21 25 29 29 28 20 17 8 10 13 18 21 24 28 30 32 35 36 38 40 42 44 45 48 50 52 52 52 50 49 48 48 48 49 50 51 51 50 47 46 46
18 19 23 30 36 36 17 20 1 6 11 15 20 25 27 28 30 32 35 38 41 43 46 48 49 50 52 54 53 53 52 52 51 51 52 53 52 52 52 51 51 50 48
24 24 21 11 13 14 8 9 9 11 13 18 21 23 25 27 31 34 37 39 40 41 43 46 47 49 51 54 56 56 55 55 54 55 53 53 52 51 51 52 52 52 51
12 11 10 11 9 9 12 9 7 9 12 16 20 24 27 30 32 34 35 38 40 42 44 46 48 49 50 51 53 55 55 55 56 55 55 53 52 51 51 52 53 52 52
9 5 3 5 9 11 6 5 12 18 23 27 28 27 28 31 34 36 39 40 42 43 44 45 47 49 49 50 50 50 51 52 52 48 45 39 36 35 36 39 41 45 47
5 3 4 5 9 10 11 16 22 26 30 34 35 36 37 37 38 39 41 43 45 47 47 48 48 48 48 46 46 45 42 44 44 44 39 36 33 34 36 36 37 40 44
5 4 6 13 14 15 20 24 24 29 33 37 38 38 38 38 39 41 42 44 45 47 49 48 47 47 46 45 46 42 42 41 38 37 40 38 36 35 37 37 36 36 37
4 14 18 22 26 23 22 25 27 32 37 39 38 38 38 40 41 42 43 45 46 47 47 48 49 48 46 45 42 39 38 38 36 37 40 40 38 36 38 37 37 34 32

GFSSE_700_spd_042.txt.gz
Wind_Speed
22 20 19 19 18 16 13 12 10 4 2 1 1 2 4 8 10 6 4 3 4 5 6 7 8 9 9 8 7 7 6 6 6 8 9 10 11 12 11 10 9 9 7
21 22 21 18 17 16 14 11 6 2 1 1 2 3 7 9 4 5 7 7 7 7 8 8 8 8 9 8 8 7 7 6 6 6 9 10 12 13 13 12 11 9 9
20 20 20 19 18 16 12 7 3 2 1 1 3 6 7 3 5 6 7 7 7 7 7 8 8 8 8 8 8 7 7 6 5 5 5 8 12 12 13 13 13 10 9
22 18 19 18 16 14 9 4 2 1 2 4 5 3 2 4 5 6 7 7 7 8 9 9 10 10 10 11 10 8 7 7 7 6 5 5 7 7 10 11 12 11 11
23 21 19 16 15 11 7 5 2 2 3 1 3 5 5 4 5 7 8 8 9 10 11 12 12 13 13 12 13 13 11 9 8 7 7 7 8 6 8 11 10 9 11
24 22 18 17 13 9 7 3 0 1 4 7 7 7 5 6 7 7 7 9 10 11 11 12 12 13 13 12 11 12 13 12 11 11 9 10 12 11 12 11 12 12 11
23 21 19 15 12 9 5 3 4 7 7 8 8 8 8 7 6 7 7 8 10 12 13 14 14 15 15 13 12 10 10 10 10 11 12 13 13 14 15 16 15 15 15
23 21 18 14 12 8 5 6 8 8 9 9 10 9 7 7 6 6 7 9 11 12 15 15 15 17 16 15 13 11 10 10 9 9 10 13 13 15 17 18 18 18 18
23 19 16 13 10 7 7 10 10 11 11 12 10 8 6 5 5 4 5 7 10 13 15 17 18 19 17 16 14 13 12 11 11 10 10 11 12 13 14 17 20 21 21
21 18 15 11 8 7 10 11 13 13 14 12 9 7 4 2 3 4 5 8 11 14 16 19 21 19 18 18 16 15 15 14 14 15 15 14 14 14 15 14 15 18 20
19 15 12 9 8 10 12 13 14 16 14 11 7 5 2 1 3 5 7 9 12 15 17 19 20 21 20 19 19 19 18 18 18 18 19 18 17 18 19 19 18 18 18
16 12 10 11 12 13 14 15 15 16 13 10 7 5 4 4 6 8 10 11 13 15 18 20 21 22 22 22 23 23 23 22 22 22 23 22 21 20 20 21 22 23 22
10 11 13 13 15 15 16 17 18 16 13 11 8 9 8 9 10 12 14 14 15 16 18 22 24 25 25 26 26 27 28 28 27 26 27 24 24 24 24 24 24 25 26
11 12 13 15 16 18 19 20 18 15 13 11 11 11 10 11 14 15 16 16 17 19 21 24 28 29 30 30 30 31 31 30 31 32 33 28 29 29 30 31 30 30 29
11 11 14 15 18 19 19 18 16 14 12 11 12 11 12 14 17 19 19 19 21 24 27 29 31 32 32 33 33 34 35 35 35 35 36 37 34 36 36 37 38 37 36
12 11 13 14 15 16 17 17 15 10 9 10 13 15 15 18 19 20 22 24 27 30 33 35 35 34 35 36 37 39 39 40 41 42 40 42 42 40 41 41 40 40 39
13 12 12 14 16 17 18 19 15 11 1 8 16 20 18 18 20 22 25 28 31 34 37 37 39 40 41 42 43 44 45 45 46 45 45 44 45 45 42 42 42 43 44
16 14 15 17 19 20 23 25 25 16 9 16 18 21 21 20 25 28 30 33 35 37 38 40 42 44 45 46 47 47 47 47 50 50 49 48 47 46 48 47 47 47 47
17 18 20 21 23 28 30 30 28 18 9 19 17 21 22 24 26 29 32 34 36 38 41 42 43 46 46 46 47 48 48 48 49 50 50 52 53 51 50 52 48 48 50
18 19 21 23 24 29 25 11 21 1 8 13 15 17 22 25 27 30 33 35 37 39 41 41 44 45 45 48 47 49 50 50 50 52 52 52 54 55 56 57 56 52 51
21 23 23 21 13 13 2 2 3 5 8 9 13 16 18 21 25 29 32 33 35 39 40 41 42 44 45 47 47 48 49 51 52 52 52 54 53 55 56 59 59 59 56
17 14 10 11 8 4 4 7 6 4 7 10 13 17 20 24 28 30 32 35 36 37 39 40 42 43 44 47 49 48 48 42 36 38 48 51 51 50 50 51 52 51 50
11 11 12 7 4 4 7 5 7 10 12 16 19 24 28 30 30 31 32 34 37 39 40 42 43 44 46 45 47 48 45 37 38 40 36 41 42 39 37 37 40 41 42
9 8 5 3 5 7 11 14 13 13 16 23 27 31 33 34 35 34 36 38 39 40 41 42 44 45 45 45 42 33 33 37 39 43 34 30 31 30 34 37 40 38 40
10 10 7 9 12 19 20 18 17 20 24 28 31 35 37 37 36 36 37 38 39 40 42 45 45 44 42 40 31 35 32 32 27 28 32 27 27 24 28 33 36 38 35
8 9 18 21 21 18 17 21 22 24 29 33 36 37 38 38 38 39 39 40 42 44 45 45 41 29 27 27 28 30 34 34 32 28 32 32 35 29 26 29 28 28 26

GFSSE_700_spd_045.txt.gz
Wind_Speed
22 22 19 18 17 16 15 13 12 7 4 2 1 1 3 7 7 3 4 5 6 5 4 5 5 6 7 7 7 7 6 6 6 7 9 11 12 11 9 9 11 11 9
24 22 19 18 18 17 15 13 8 5 3 2 2 1 5 5 2 4 6 6 5 5 5 6 6 7 8 7 8 8 8 8 7 6 7 9 9 11 11 10 11 11 11
24 22 20 19 20 17 15 11 6 4 4 4 3 3 3 1 3 4 4 5 5 6 7 7 8 8 9 9 9 9 9 9 9 8 7 13 20 9 11 12 12 12 12
22 22 19 19 20 17 12 8 5 4 4 4 4 2 4 4 4 4 5 6 8 8 8 9 9 10 10 10 10 10 10 9 10 9 5 6 14 10 8 8 10 11 12
23 23 19 20 19 15 10 7 6 5 5 4 4 6 6 5 6 5 6 7 8 9 9 10 11 11 10 11 11 11 10 9 8 9 13 7 13 11 11 11 12 10 12
23 24 23 21 18 13 10 7 4 4 4 7 7 7 6 7 6 5 7 7 8 9 10 10 11 12 12 11 10 10 9 9 9 7 11 15 15 15 14 15 15 15 13
26 22 21 20 17 12 9 5 5 6 8 9 8 7 8 6 6 6 6 6 8 10 12 13 15 15 15 14 12 10 9 9 8 8 9 15 14 15 16 17 18 18 18
22 23 21 19 16 12 8 6 8 9 9 9 9 8 6 6 5 5 5 6 8 11 12 15 18 19 18 17 15 13 11 10 10 10 10 13 13 14 15 16 18 21 20
21 20 19 17 14 11 7 8 10 10 10 10 10 8 7 5 3 2 3 5 8 10 13 15 18 20 19 18 17 16 15 13 12 12 11 14 15 16 16 15 15 17 20
21 20 17 14 11 8 8 11 11 12 13 12 11 8 6 3 1 2 4 7 9 11 13 15 17 20 21 20 19 18 18 17 15 15 16 16 17 17 18 19 19 17 17
20 17 16 12 9 8 10 11 13 14 14 13 10 8 5 4 5 6 7 9 11 12 14 15 18 21 22 23 21 20 21 18 18 19 22 19 19 20 20 20 20 21 21
18 17 14 11 9 10 11 13 14 16 16 14 11 9 8 8 7 9 10 11 12 14 16 17 20 23 25 23 28 28 27 24 24 23 25 19 20 21 22 22 22 22 23
17 15 12 9 8 12 14 16 18 18 16 14 12 11 10 9 9 12 15 16 15 16 19 21 24 26 29 29 30 30 29 29 29 29 30 27 21 23 24 25 26 26 27
13 11 10 11 13 15 17 20 19 19 17 16 13 11 10 11 10 12 16 18 19 21 21 24 26 29 32 32 33 32 33 32 31 31 32 34 31 28 29 29 31 32 32
9 9 11 13 15 17 19 19 21 18 18 13 12 11 13 14 14 17 21 22 23 25 27 29 31 33 34 33 35 35 38 36 36 38 36 37 38 33 32 33 33 34 35
9 10 11 12 14 17 18 19 19 19 16 14 12 12 17 22 22 20 21 24 27 29 33 34 35 34 36 37 39 41 41 40 40 40 38 37 40 40 36 36 36 36 37
11 8 8 10 12 16 19 21 22 21 20 13 4 13 20 22 23 23 24 26 30 34 34 35 35 38 39 41 42 44 44 43 43 44 45 42 42 45 44 39 38 39 39
14 12 11 11 13 16 20 24 26 22 16 9 15 23 21 24 23 25 27 30 32 34 35 37 39 41 42 43 44 44 45 45 45 44 45 50 49 45 46 49 46 42 44
16 16 13 15 19 21 21 24 26 23 34 29 21 22 21 26 26 28 28 29 32 35 37 39 39 41 43 43 44 44 44 46 45 46 43 49 50 48 53 44 52 46 49
20 19 18 20 21 23 26 22 17 6 12 9 14 17 23 22 22 23 26 29 31 35 37 40 40 40 41 43 46 48 47 47 47 51 48 46 48 50 52 54 53 54 56
23 21 22 21 25 21 15 7 4 6 11 12 12 13 16 18 18 22 28 31 31 34 38 40 40 41 43 44 47 48 49 46 44 42 40 41 46 46 49 53 51 52 55
23 24 24 21 16 12 8 4 2 6 10 11 13 16 18 20 23 27 28 30 33 34 38 40 40 42 43 44 45 47 49 45 38 24 31 37 39 48 46 43 43 41 43
21 17 14 14 11 8 4 4 8 10 11 14 17 19 21 24 28 29 31 32 34 36 38 40 42 43 44 43 39 37 36 38 36 35 36 42 41 38 32 30 33 36 31
14 13 12 9 7 6 8 12 13 14 14 16 21 27 31 31 33 33 35 36 37 38 39 40 40 42 41 40 34 29 35 37 37 39 31 32 31 25 29 31 32 37 32
14 11 11 10 11 14 16 16 15 15 19 21 25 30 33 35 36 38 37 38 38 39 40 40 41 41 40 39 36 32 32 31 30 35 36 28 28 27 30 32 33 32 34
12 12 13 13 19 16 17 18 20 22 23 26 30 30 32 31 36 37 40 40 41 41 41 42 41 40 37 31 31 30 31 33 37 35 35 35 37 35 25 26 27 29 33

GFSSE_700_spd_048.txt.gz
Wind_Speed
19 22 21 20 19 18 17 17 14 11 7 5 2 1 3 6 5 6 7 6 6 5 6 7 7 8 8 8 8 9 9 9 9 8 8 9 9 10 11 13 10 8 7
15 24 22 20 20 19 18 16 12 9 6 4 2 1 4 3 5 6 6 5 6 7 8 8 9 9 9 9 9 9 9 9 9 10 8 8 9 12 10 11 12 11 10
17 25 22 22 22 19 17 14 10 8 5 4 2 2 1 4 5 5 5 7 8 9 9 9 10 10 10 10 10 9 8 8 9 10 10 7 9 13 12 10 11 12 11
25 24 24 24 23 20 16 12 9 7 5 4 3 2 4 5 4 6 8 9 9 10 10 10 10 10 11 11 11 11 10 8 6 5 9 5 13 14 13 13 11 13 10
28 27 23 22 22 19 14 11 8 5 5 5 4 6 7 5 6 8 9 9 9 9 9 9 10 12 13 13 13 12 11 9 6 7 8 11 13 13 14 15 14 13 14
29 28 24 19 20 17 13 10 6 4 5 7 9 9 7 8 8 8 8 8 8 9 10 11 12 14 14 13 11 11 11 10 11 6 14 8 12 14 14 15 16 16 16
31 30 28 22 20 15 12 8 4 4 8 10 9 9 9 9 8 7 6 6 7 7 9 12 14 16 16 14 13 11 11 10 10 11 13 12 14 15 15 15 16 17 18
28 29 21 19 18 14 11 7 6 9 10 10 10 11 9 9 7 5 3 4 6 8 10 12 14 17 18 17 15 14 12 11 10 8 16 13 14 16 16 16 16 16 16
16 28 22 20 15 13 10 7 8 9 9 9 10 10 9 8 5 2 1 3 5 8 10 12 15 17 18 19 18 16 15 13 12 10 14 16 16 17 18 18 18 17 17
26 20 15 12 12 12 8 7 8 9 10 11 11 9 8 6 3 2 2 5 7 9 10 13 15 18 19 21 20 17 19 19 17 17 19 18 17 18 19 19 19 19 19
26 22 19 17 15 10 7 8 9 11 12 13 10 9 8 6 3 3 6 8 10 12 13 14 16 18 21 22 25 23 22 21 21 22 21 22 19 20 21 20 20 21 21
21 21 21 16 12 9 9 10 12 14 15 14 11 10 9 6 7 7 9 12 12 14 17 17 18 20 23 26 26 28 27 24 23 25 24 24 22 20 23 23 22 22 23
16 15 13 11 9 8 11 12 14 15 15 13 11 10 7 6 7 11 13 15 12 19 21 22 25 26 27 28 28 26 26 27 27 27 28 28 28 26 25 26 26 26 26
13 12 10 8 9 6 10 14 16 16 16 17 12 11 9 9 11 11 15 25 27 25 20 25 27 29 31 33 32 34 33 33 32 32 34 32 32 31 28 26 27 28 29
12 10 10 11 11 13 16 15 19 20 20 16 11 10 10 11 14 18 18 23 27 26 27 29 32 33 33 33 34 35 37 37 37 37 36 35 32 35 34 30 30 31 31
8 8 8 8 10 14 14 17 19 20 19 18 15 12 11 17 18 19 21 25 26 25 29 31 34 34 35 36 36 37 38 39 38 38 39 40 38 38 38 37 32 33 34
4 4 5 6 7 9 11 12 16 20 20 19 16 17 13 24 21 18 24 27 28 28 31 33 34 36 37 37 38 38 39 39 38 39 41 40 44 45 42 42 43 36 37
7 7 5 4 5 7 9 14 17 21 24 28 28 26 25 28 25 24 26 26 28 30 32 34 35 36 38 40 40 40 42 39 40 40 40 39 42 45 48 50 49 47 41
11 11 9 11 10 14 15 15 18 21 22 22 33 30 34 36 26 24 26 23 25 30 33 35 35 36 37 38 39 40 42 41 40 42 42 42 38 42 47 50 54 54 53
10 8 15 16 15 18 21 22 17 14 14 10 11 13 22 21 21 22 21 23 26 33 35 36 38 37 38 39 41 43 44 46 46 43 43 40 37 42 47 51 53 53 55
23 19 18 16 19 22 22 17 13 9 7 7 8 12 17 18 17 21 25 27 29 33 35 37 38 39 39 40 42 43 42 43 44 42 43 44 45 47 49 50 52 55 55
26 22 18 22 22 21 16 14 11 7 8 10 12 16 16 18 22 25 27 31 33 33 34 37 37 38 39 40 42 44 45 42 41 41 40 40 43 48 49 49 48 48 56
28 25 23 22 16 15 12 11 10 12 12 14 16 19 19 21 22 26 28 30 34 35 35 35 37 39 40 38 38 40 44 46 46 44 42 40 40 48 51 50 47 39 36
24 26 19 17 15 13 11 13 12 15 16 19 20 24 23 26 27 30 31 34 33 34 35 36 36 37 38 41 40 38 39 43 43 47 41 36 37 37 36 34 36 37 35
21 18 19 15 12 11 13 14 14 14 15 17 20 25 28 32 37 36 36 36 37 38 39 39 39 40 40 41 41 40 38 31 33 36 41 38 36 38 35 32 33 31 33
15 16 14 13 15 14 16 17 15 17 20 24 25 27 30 33 34 33 36 38 38 38 39 39 39 39 40 40 37 33 30 36 37 39 40 43 47 35 36 35 37 33 34

GFSSE_700_spd_051.txt.gz
Wind_Speed
18 20 23 23 23 22 21 20 16 14 11 8 5 4 3 5 7 8 9 9 8 7 8 9 9 9 9 9 9 9 9 9 9 8 7 8 11 10 12 9 9 9 7
15 21 21 23 24 23 22 20 16 14 11 8 5 2 3 6 8 8 9 9 10 9 10 9 10 9 9 9 9 8 8 8 6 6 4 5 10 13 16 12 10 9 8
25 21 24 25 25 23 22 19 16 13 10 7 4 1 4 7 7 9 10 11 10 10 9 9 9 10 9 10 10 9 8 9 10 9 6 2 7 13 15 11 10 9 9
22 28 30 26 26 23 21 17 14 12 8 5 3 3 8 8 9 10 11 11 10 9 9 9 10 10 10 10 10 9 8 9 11 11 9 8 9 12 14 12 13 11 8
24 32 30 30 27 25 20 14 12 8 5 5 5 9 9 9 11 11 11 10 9 8 8 9 10 11 11 10 10 10 10 11 11 14 12 12 12 13 15 16 16 15 13
33 37 35 31 27 23 16 12 9 5 6 7 11 11 10 11 11 11 9 9 7 7 8 9 11 13 14 13 12 10 9 12 12 12 12 8 10 11 12 13 14 15 15
41 40 35 30 26 20 16 13 7 6 8 12 12 11 12 11 11 10 9 7 6 5 7 8 10 13 15 14 11 10 10 12 14 12 14 10 11 12 13 13 13 12 14
31 35 33 30 27 18 15 10 7 8 11 11 10 12 12 12 10 9 6 4 4 4 6 7 10 12 14 15 14 10 10 12 15 14 18 16 16 15 15 15 14 14 13
30 33 32 26 20 18 12 8 8 11 11 11 12 12 12 10 8 6 3 2 2 4 6 8 10 12 14 15 16 14 11 9 15 15 16 17 18 18 19 18 17 17 16
19 17 30 21 14 12 10 9 11 12 12 12 13 12 11 8 6 3 1 2 5 8 9 11 12 13 15 17 18 17 15 15 18 16 17 19 18 18 19 19 19 19 19
23 25 22 18 17 16 12 9 10 12 13 13 13 10 9 6 3 2 3 6 10 13 11 13 15 16 17 20 22 23 22 19 19 22 23 25 23 21 20 22 22 21 20
22 24 22 16 9 6 7 7 10 12 12 13 12 11 9 6 4 5 7 9 12 15 14 18 16 19 20 24 26 25 24 24 23 24 24 26 28 27 26 24 25 26 24
25 22 19 14 11 9 9 11 11 11 11 12 12 10 8 8 10 9 10 12 16 18 21 22 20 21 25 26 27 28 26 25 27 27 25 28 29 29 28 27 25 26 26
21 17 16 13 9 6 8 10 12 12 13 14 13 12 11 11 12 12 14 17 20 25 24 24 25 28 30 31 30 31 32 33 32 32 31 29 29 27 30 29 27 27 28
18 14 9 5 7 12 12 10 9 9 11 13 14 14 12 11 16 18 16 18 19 22 23 26 28 30 32 31 31 32 33 35 35 35 34 33 33 33 32 32 31 29 30
9 7 6 8 9 7 5 5 7 7 8 13 15 18 16 17 19 14 18 16 19 24 24 28 28 28 32 35 36 35 36 36 34 34 34 36 37 38 38 37 37 35 33
7 6 5 2 3 3 1 3 7 8 11 12 17 21 22 19 22 16 18 24 27 25 26 26 28 32 34 34 34 35 35 34 32 33 34 36 37 39 42 43 42 41 39
8 7 6 5 5 2 1 4 7 10 13 17 22 30 29 23 26 27 28 27 29 28 26 26 29 32 33 33 33 34 34 35 34 35 36 36 35 39 41 45 47 48 48
6 6 4 1 3 6 7 8 11 14 17 20 24 26 27 29 34 35 31 27 26 26 26 28 31 34 35 35 35 33 33 35 36 37 40 40 40 41 43 47 51 54 54
5 5 6 6 7 11 12 16 16 13 13 16 17 17 19 22 22 23 25 24 25 28 31 32 36 37 36 36 35 35 35 36 37 39 40 40 41 43 45 48 51 55 58
7 9 7 10 12 15 18 19 15 12 12 12 9 11 13 15 21 23 26 26 28 32 33 35 36 36 35 35 35 34 35 35 36 36 38 38 38 41 43 46 49 53 56
14 12 12 15 16 19 21 17 13 13 12 10 13 13 15 18 22 24 27 28 26 28 32 35 36 36 35 36 37 38 39 36 36 37 38 40 42 44 46 45 47 51 53
22 19 17 19 20 23 18 14 12 12 11 13 15 16 18 21 23 25 24 27 31 30 32 34 35 35 36 34 35 38 41 43 44 40 39 40 39 44 46 43 43 45 47
27 23 22 21 25 21 15 13 13 13 16 17 19 18 16 19 20 23 25 28 32 31 31 33 33 35 36 38 36 36 36 40 45 50 47 44 38 34 34 36 35 43 43
30 25 24 27 23 18 15 13 14 18 21 20 21 21 23 25 27 30 34 33 33 32 33 35 36 37 38 39 40 41 40 41 41 42 47 44 41 38 36 39 38 32 34
21 25 27 25 20 17 14 15 17 20 22 24 24 26 27 29 36 38 39 39 37 36 36 37 37 37 38 38 39 39 39 40 39 37 39 42 44 41 41 37 31 36 36

GFSSE_700_spd_057.txt.gz
Wind_Speed
19 26 30 32 31 28 26 24 21 18 15 11 8 5 2 2 5 7 9 8 7 7 7 6 6 7 8 10 11 10 10 9 8 7 5 12 12 12 13 11 10 8 7
15 26 30 31 31 28 27 25 21 18 14 11 8 5 3 7 8 8 8 8 8 8 7 6 6 7 9 9 9 8 8 9 7 7 8 11 10 11 12 10 9 9 8
15 25 29 30 29 28 27 21 23 19 16 12 9 6 7 8 7 7 8 8 8 7 7 6 7 8 10 9 9 8 7 8 8 9 9 10 10 11 11 10 10 9 8
18 24 29 32 31 30 30 27 19 20 15 12 9 6 9 8 7 9 8 8 7 7 7 6 7 9 12 12 12 11 10 10 9 8 9 9 9 9 11 12 11 10 9
20 26 30 33 35 33 31 29 25 19 14 11 8 7 11 9 10 9 8 7 7 7 7 7 8 10 12 12 12 12 12 13 14 14 13 12 11 11 10 11 12 11 10
25 28 32 33 34 33 28 25 20 17 11 9 8 11 11 12 11 9 7 6 6 5 6 8 12 13 14 16 17 17 17 17 17 17 16 14 14 14 13 12 12 12 13
24 28 33 36 35 34 26 21 19 11 9 8 11 13 12 12 10 8 6 5 3 3 5 7 9 12 15 17 19 21 22 22 21 21 20 17 16 16 15 14 14 13 13
27 32 36 36 29 31 23 15 15 15 10 12 14 14 14 13 10 8 5 3 0 3 5 7 7 8 13 15 18 20 22 24 23 21 19 19 18 18 20 18 17 16 14
25 38 35 33 31 27 23 22 17 11 15 16 16 16 15 13 10 7 4 4 3 4 5 6 8 11 12 15 17 20 22 22 22 21 20 20 20 18 19 20 21 20 19
29 36 40 35 33 24 26 15 12 16 18 16 16 15 13 12 9 8 7 7 7 7 7 9 10 12 11 12 17 20 21 20 21 23 24 24 25 24 23 21 21 21 22
39 32 25 36 29 28 16 11 14 16 15 14 15 15 14 12 10 9 8 8 8 8 6 9 12 11 12 15 17 20 22 22 22 22 23 24 26 27 27 26 24 24 23
21 32 29 26 30 22 15 15 16 15 14 15 15 14 13 12 11 10 9 10 9 8 11 14 13 15 18 20 19 18 19 22 24 25 25 24 24 25 25 25 25 22 23
21 33 17 34 31 22 11 7 9 11 12 15 16 14 13 13 10 10 11 11 11 12 14 15 19 24 25 24 21 21 23 25 27 27 28 28 28 28 27 25 25 23 22
25 31 24 21 19 15 13 11 11 12 14 14 13 11 10 11 11 12 15 15 15 16 16 19 23 23 26 25 24 27 28 29 30 31 31 30 29 29 30 29 28 27 24
22 21 17 12 11 9 9 11 10 10 10 10 12 12 11 12 14 17 17 17 17 17 18 23 27 26 25 25 27 28 29 33 34 33 32 31 31 31 32 31 30 30 27
22 17 14 12 10 7 6 7 6 6 7 8 10 12 15 15 15 17 18 19 20 19 24 29 26 23 23 25 27 30 34 36 36 33 30 31 32 32 32 31 30 30 30
22 18 11 11 10 11 8 9 7 8 8 9 10 13 14 15 17 18 21 22 21 25 30 29 22 23 25 29 32 34 35 37 38 37 35 31 32 31 31 29 30 31 32
14 19 19 18 14 13 12 10 8 7 6 8 10 11 15 18 19 21 22 22 24 29 25 21 23 26 29 32 34 34 36 39 40 39 38 35 34 33 34 34 35 37 39
17 16 16 14 13 10 8 6 5 3 5 6 9 13 16 19 22 22 22 21 24 20 21 23 26 30 32 33 35 36 39 41 41 40 38 37 36 36 37 39 41 43 45
16 15 13 10 8 5 4 2 3 5 6 8 10 13 16 19 18 18 18 18 20 23 26 28 30 33 34 35 38 39 40 38 38 39 38 38 38 38 40 41 42 44 47
13 10 9 7 5 4 3 5 8 9 10 10 12 15 17 16 17 19 19 21 24 27 32 34 36 36 35 37 38 39 40 39 38 38 38 39 38 39 40 42 44 45 46
11 8 8 8 7 7 8 10 11 14 14 14 15 16 17 18 20 19 21 24 26 30 31 31 33 34 36 37 39 40 41 40 40 40 40 40 41 41 42 42 43 44 46
8 8 10 11 13 13 14 15 15 15 16 15 16 16 18 20 20 22 24 26 27 30 32 34 36 37 37 39 40 40 43 44 43 41 40 42 42 42 43 43 43 44 44
4 6 12 14 17 19 19 19 17 17 17 16 17 18 17 18 21 24 26 27 28 32 34 39 38 39 38 38 43 43 42 44 47 49 47 44 42 42 43 42 42 42 43
9 9 12 15 19 21 22 21 20 19 18 18 17 16 18 21 24 26 28 28 32 31 34 35 38 37 40 49 45 43 44 46 45 46 49 47 47 41 39 39 38 37 38
17 14 17 16 16 19 24 24 24 18 20 18 17 18 22 26 30 33 34 39 35 43 38 47 47 38 44 44 42 45 46 47 45 44 45 45 46 46 40 38 37 34 33

GFSSE_700_spd_060.txt.gz
Wind_Speed
22 25 25 28 26 25 24 22 20 17 14 12 9 5 2 1 3 6 7 6 6 5 6 8 9 10 10 9 10 9 9 7 6 7 9 12 12 10 10 9 8 8 7
15 24 29 29 28 26 24 24 21 17 15 12 8 5 2 5 7 7 7 5 5 4 6 8 10 11 11 10 10 9 9 9 8 8 10 12 11 11 9 8 7 6 6
19 24 29 29 28 26 26 26 22 17 14 10 7 4 6 8 7 7 6 5 5 5 7 10 11 13 13 12 12 12 12 13 13 13 12 12 11 11 11 11 9 8 6
18 23 29 31 31 29 28 27 25 16 11 9 7 5 9 8 8 9 7 5 4 6 9 11 13 14 15 15 16 16 16 15 15 15 14 13 13 13 13 13 12 11 9
19 28 31 33 33 31 30 28 24 17 13 12 8 7 10 9 10 9 7 5 4 6 9 12 13 14 15 15 16 18 19 19 19 17 16 16 15 14 14 14 14 14 12
20 27 31 33 33 32 30 27 22 17 12 11 8 12 12 12 11 10 8 4 4 7 8 10 11 13 14 16 18 20 21 21 21 20 20 18 17 16 15 14 14 14 14
22 28 30 34 34 33 31 27 24 14 14 11 11 14 14 13 10 10 7 4 3 5 8 9 11 14 17 18 19 21 23 24 23 21 19 19 17 16 16 16 16 14 14
18 27 33 35 36 39 30 26 20 17 13 9 15 15 15 13 11 8 6 3 2 7 8 10 13 15 16 15 17 19 21 21 20 19 18 17 17 18 17 17 17 16 15
20 29 35 39 39 34 33 28 20 18 18 18 18 18 17 14 12 9 5 2 2 4 9 10 9 13 13 14 17 19 19 19 20 21 21 20 19 19 18 18 18 19 18
20 29 31 36 37 29 29 29 22 23 18 18 19 18 17 15 12 8 4 3 2 6 5 5 11 12 12 15 18 20 19 18 19 20 21 22 21 21 21 20 19 19 19
23 27 26 34 20 30 31 33 26 21 22 21 20 18 17 14 10 8 6 2 5 5 3 8 10 12 16 19 21 19 18 19 20 22 23 24 23 19 18 19 20 20 19
27 25 31 24 27 25 37 26 23 22 19 17 18 17 16 13 10 6 3 5 7 7 8 11 12 14 18 19 20 19 18 19 21 23 25 27 28 25 23 20 18 18 19
29 9 22 22 29 30 32 26 20 18 17 17 16 14 13 10 7 7 6 8 9 10 11 13 13 16 20 22 20 19 20 22 24 27 29 29 30 30 27 25 23 21 20
25 24 15 23 32 24 24 19 17 16 14 15 14 13 11 10 7 8 9 12 12 14 15 15 18 22 22 20 19 21 24 27 29 29 30 31 31 30 31 29 28 25 24
15 31 35 29 21 19 18 18 15 14 13 12 12 11 10 9 9 10 12 13 16 17 18 19 24 26 21 20 22 25 28 29 29 30 31 32 33 32 31 30 29 28 26
24 22 17 17 15 12 12 12 11 10 11 11 11 11 12 12 11 12 13 16 17 17 19 23 24 21 21 22 25 29 31 32 32 32 33 35 35 34 33 31 29 29 27
22 16 14 13 12 12 11 11 10 10 11 12 13 13 12 12 13 14 17 17 15 17 21 22 19 20 22 24 27 30 32 34 36 35 36 36 36 36 35 34 33 32 32
17 18 18 17 17 15 14 13 11 10 10 9 9 11 12 15 15 17 18 17 17 18 19 18 20 22 24 27 30 32 34 36 38 40 41 38 38 38 38 38 37 38 39
15 15 16 16 15 14 13 12 11 10 9 8 8 12 12 13 16 17 15 15 16 15 17 20 23 26 29 32 33 34 35 36 39 40 39 40 41 40 40 42 42 42 42
16 17 17 16 15 14 12 9 7 5 5 7 9 9 11 14 15 15 15 15 15 17 20 23 27 31 33 34 35 35 35 36 39 40 40 41 43 43 43 42 43 44 44
17 16 15 14 13 10 7 4 3 3 5 7 9 10 12 14 15 14 16 17 17 19 22 26 29 31 33 36 37 38 38 38 39 43 45 44 43 43 43 43 43 44 44
14 13 13 10 9 8 6 7 7 8 8 10 10 10 13 15 14 15 17 19 20 23 26 29 32 35 34 38 39 38 39 40 44 49 46 47 45 44 44 45 45 46 46
11 9 10 9 9 8 10 12 12 11 10 10 9 11 14 16 16 18 21 23 25 27 30 32 32 30 33 38 40 36 39 43 49 44 45 47 47 45 44 46 46 46 46
9 11 12 13 10 11 15 17 15 14 14 14 13 14 17 18 20 21 24 26 28 31 33 35 37 38 36 39 42 38 41 44 47 49 50 51 48 45 43 44 45 46 47
8 8 10 11 11 12 16 18 17 17 17 21 18 16 17 19 22 24 28 30 33 36 40 43 34 35 40 42 45 46 49 46 46 49 52 50 48 46 45 42 43 44 45
13 16 14 13 13 14 15 14 17 20 23 22 19 17 19 23 26 28 31 34 35 42 49 49 36 45 38 43 47 48 47 47 48 49 48 46 47 45 45 43 42 42 39

GFSSE_700_spd_063.txt.gz
Wind_Speed
17 23 20 22 23 21 19 17 17 16 12 9 6 4 3 1 3 6 8 8 9 10 9 10 10 10 9 10 10 10 10 10 10 11 12 13 13 11 10 8 7 6 4
16 24 23 24 26 23 20 19 19 16 13 10 7 5 3 4 7 9 8 9 9 9 9 9 10 10 11 12 13 13 13 13 13 13 14 14 13 13 11 8 7 6 5
20 25 26 27 27 24 23 22 21 17 15 11 8 6 6 7 8 9 9 9 9 9 10 10 12 14 15 16 16 16 16 16 15 15 15 14 13 12 11 11 10 9 8
17 24 28 28 28 26 24 23 21 19 16 12 9 7 9 8 8 9 10 9 10 10 10 10 12 14 16 17 17 18 18 18 18 17 15 14 14 14 13 12 11 10 8
18 25 29 30 31 29 27 26 24 20 16 11 7 8 9 9 9 10 9 9 10 9 8 9 13 15 15 15 16 17 19 19 18 17 16 15 14 14 13 13 13 12 11
24 25 28 29 30 29 27 25 24 20 15 10 10 11 11 12 11 10 9 9 8 7 8 10 13 14 14 15 16 18 21 20 19 17 16 16 16 16 15 14 13 11 10
22 24 28 30 31 31 29 28 25 21 15 12 10 12 14 14 13 10 9 8 7 6 9 10 12 13 15 16 17 21 21 19 18 18 17 16 16 16 16 15 14 13 12
20 25 30 33 32 35 37 35 28 21 18 16 16 15 16 13 12 10 8 7 6 7 9 10 12 15 14 14 17 20 20 19 18 18 18 18 18 17 16 16 16 16 14
18 27 35 39 37 40 38 40 32 23 23 18 17 17 16 15 13 8 6 5 5 6 7 8 11 10 10 14 17 19 19 17 16 17 17 17 16 17 18 18 18 18 18
20 26 29 44 35 37 40 45 33 27 24 22 21 19 19 16 11 7 4 3 4 4 5 6 8 9 11 14 17 17 15 15 17 17 17 18 18 17 17 19 19 19 18
22 28 28 26 33 29 34 44 37 36 26 26 22 21 20 15 11 8 4 1 2 3 6 7 8 9 12 14 16 17 14 15 15 16 17 17 17 18 18 18 19 19 19
23 26 25 31 31 30 27 30 28 32 28 25 25 21 17 14 10 7 4 4 3 6 7 10 9 11 15 18 20 16 14 15 17 19 20 21 21 21 20 19 19 19 19
17 20 34 37 36 17 28 33 33 30 31 26 23 18 15 13 9 8 6 4 6 8 10 11 11 14 19 20 16 13 14 18 21 23 24 26 28 28 25 24 21 19 20
31 19 25 20 24 20 35 35 33 25 23 20 16 16 14 12 10 8 6 6 7 10 12 12 14 18 20 15 14 15 18 22 24 25 26 28 29 31 31 28 25 21 19
15 23 14 12 22 37 35 27 24 18 16 15 16 16 14 11 10 9 8 8 10 12 15 15 18 21 15 15 17 19 22 24 25 27 28 30 31 32 33 32 32 29 25
28 34 36 38 32 29 25 22 20 19 18 17 17 14 12 12 11 9 10 11 13 16 14 16 18 15 16 19 21 23 25 26 27 28 29 32 34 33 33 34 34 34 33
29 28 28 25 23 21 21 19 18 16 16 15 14 13 13 12 11 10 12 13 14 14 14 16 13 15 18 22 25 27 29 29 27 28 29 32 34 34 36 37 38 38 38
17 16 18 18 18 18 18 18 17 17 16 15 14 13 13 13 12 13 12 15 13 14 13 13 15 17 21 25 27 27 28 28 29 29 31 32 33 37 39 41 42 43 43
15 15 17 19 18 17 18 19 17 16 15 15 14 14 13 13 12 13 15 13 12 14 13 14 17 20 22 23 26 29 31 33 34 35 35 35 36 41 42 43 44 45 46
15 16 17 17 18 19 18 16 15 12 11 12 12 11 11 11 12 14 13 12 13 14 15 17 20 22 23 28 30 31 33 36 37 37 37 38 42 45 43 45 45 46 47
16 16 15 14 14 14 13 11 10 9 10 10 10 11 12 11 12 14 12 14 17 16 18 21 23 25 28 31 30 28 30 34 37 36 37 39 43 43 44 46 47 49 49
17 16 16 16 15 13 13 12 11 11 9 9 10 11 12 12 13 14 15 19 19 21 22 24 26 29 31 32 32 35 42 44 39 39 42 45 45 45 46 46 48 48 48
16 16 15 14 14 13 12 11 11 10 9 8 9 13 16 15 15 16 19 21 22 22 24 26 31 36 38 38 39 32 39 43 43 42 41 41 45 45 45 45 45 46 47
13 14 14 14 14 14 14 14 14 14 13 12 13 19 20 16 16 19 21 23 24 25 27 30 33 36 43 46 48 42 37 41 48 48 45 43 45 45 44 42 43 44 46
15 14 14 15 16 17 17 16 17 19 18 17 20 21 22 18 17 21 23 25 27 28 30 35 37 41 38 39 39 49 42 42 43 43 45 44 43 40 41 43 41 44 45
18 17 15 14 17 18 19 18 16 17 18 21 22 25 24 21 20 23 27 29 30 32 35 40 36 31 34 35 42 47 43 43 44 42 39 37 38 39 40 43 43 45 44

GFSSE_700_spd_069.txt.gz
Wind_Speed
18 19 18 22 24 21 21 20 18 15 12 9 6 5 5 5 8 13 14 14 14 12 11 11 12 12 12 13 13 12 12 12 12 12 11 11 10 8 7 5 4 3 2
16 19 20 24 24 23 22 21 19 16 13 10 7 5 5 8 12 14 15 14 13 12 12 14 15 16 16 16 16 15 14 14 14 13 12 12 11 9 9 7 5 4 3
23 21 23 24 24 23 23 22 19 17 14 11 8 6 5 10 13 14 15 15 14 15 16 16 16 17 16 16 15 14 14 13 13 11 14 12 10 9 9 8 7 5 4
17 20 24 26 25 25 24 23 20 19 16 13 10 8 9 13 13 15 15 16 15 17 17 16 15 15 15 16 16 15 15 15 13 14 10 11 10 9 9 7 7 6 5
17 21 26 28 28 26 25 24 23 21 19 16 12 10 12 14 15 16 16 15 16 17 16 15 14 14 14 14 14 14 14 13 10 12 10 10 10 10 9 8 8 7 7
20 24 26 28 27 27 26 25 24 22 19 16 14 13 15 17 18 18 17 16 16 14 14 14 13 13 12 12 14 13 12 11 11 9 10 9 10 9 10 9 9 8 8
24 21 24 28 29 29 29 27 26 24 21 18 16 15 17 18 19 18 16 15 14 13 12 12 11 10 10 11 13 13 11 10 10 9 12 12 12 12 12 11 11 10 10
31 25 29 30 30 32 31 31 29 25 22 19 17 17 19 19 19 18 16 14 12 11 11 9 9 8 9 11 13 14 11 8 11 11 10 12 13 13 13 13 13 12 12
19 22 30 28 39 40 39 36 33 29 24 21 20 20 18 20 20 16 15 13 11 10 8 7 7 8 9 12 14 14 10 8 8 8 11 12 11 11 12 12 13 14 15
16 9 7 30 30 40 40 39 34 31 27 24 23 23 21 20 19 16 14 11 8 7 6 6 6 6 9 10 12 12 7 5 10 10 10 10 10 10 11 13 14 15 16
16 19 18 25 37 32 34 39 42 32 30 28 28 25 22 20 20 15 12 9 7 5 4 3 3 5 7 10 13 10 6 9 10 9 10 10 10 10 12 13 13 13 13
17 19 23 27 33 34 38 25 29 39 39 35 29 27 24 20 19 14 12 10 6 4 1 2 4 7 9 11 11 7 8 8 8 11 12 13 12 12 13 13 13 14 14
21 19 22 27 22 29 34 33 27 49 46 38 31 27 29 22 16 15 11 7 4 3 2 5 8 10 11 14 9 7 7 8 11 14 13 12 13 14 15 16 16 16 17
20 18 25 24 26 30 32 31 40 46 50 43 33 34 24 19 17 14 11 8 5 4 3 8 10 10 11 9 6 7 10 12 12 12 9 12 15 18 18 19 19 19 20
17 20 21 27 34 26 31 31 25 31 36 40 34 24 19 18 16 14 10 8 7 6 7 10 11 10 9 7 8 11 11 10 10 14 14 16 18 20 22 23 24 24 24
19 26 26 27 18 17 18 24 27 32 36 35 29 20 20 18 16 14 11 9 9 8 11 12 11 10 8 9 11 10 12 14 15 17 20 17 20 21 23 26 27 29 30
16 19 19 25 17 18 29 33 36 30 26 21 18 18 20 20 17 14 12 12 11 11 13 13 11 11 10 11 12 13 15 17 18 15 17 24 22 24 27 29 31 32 33
9 10 13 12 19 34 27 23 22 20 19 19 20 23 23 20 17 15 14 13 14 14 15 13 13 12 12 14 13 15 18 19 18 17 22 27 29 35 34 29 31 35 36
21 24 29 24 20 20 20 20 20 20 21 23 23 21 21 20 17 16 16 17 16 16 16 15 14 14 15 15 17 17 19 22 24 26 27 27 29 28 31 38 36 39 38
11 16 16 16 17 18 18 19 20 21 22 22 21 21 21 19 18 18 19 18 18 18 16 15 16 16 17 17 19 23 24 25 30 32 30 33 34 33 35 34 37 41 40
12 12 14 16 15 16 18 19 20 20 20 21 20 19 20 21 20 19 20 19 19 17 17 16 17 18 18 18 22 25 32 31 29 25 27 31 34 37 39 37 36 36 37
12 15 16 16 18 18 17 17 17 17 17 18 18 19 20 20 20 20 22 21 20 19 17 17 19 20 21 21 23 27 31 34 38 37 33 32 37 34 36 40 40 39 37
17 17 17 17 18 17 18 18 17 18 18 19 17 18 18 20 21 22 23 24 24 21 19 19 21 22 26 25 26 29 33 32 31 31 36 38 35 36 37 37 37 36 38
17 18 17 17 18 18 18 18 18 18 17 16 16 18 20 22 23 23 26 28 27 24 23 23 24 24 25 32 32 31 31 32 31 32 29 39 43 44 40 37 33 34 34
18 19 19 19 19 20 19 20 19 19 19 20 22 21 23 24 25 25 26 26 28 26 25 26 26 27 26 31 34 36 37 33 35 36 38 34 34 37 40 43 39 33 32
21 22 21 22 22 22 21 21 21 22 22 23 23 24 30 29 30 31 29 30 31 29 29 29 28 29 27 34 31 32 35 33 30 34 39 37 38 37 36 37 39 36 35

GFSSE_700_spd_072.txt.gz
Wind_Speed
24 21 23 20 20 22 23 20 20 17 15 13 10 9 8 9 13 16 17 16 15 15 14 14 14 14 13 13 12 12 12 11 12 11 11 10 9 8 7 6 4 3 3
20 15 21 21 23 24 23 22 21 18 16 13 11 9 9 12 16 17 16 16 15 15 15 16 17 17 16 14 13 12 11 11 11 11 11 10 9 9 7 7 6 4 3
7 12 21 23 24 24 23 23 22 20 18 15 12 10 11 15 17 17 16 16 16 16 18 19 19 17 15 14 13 13 12 11 9 10 13 11 10 9 8 8 7 6 5
18 13 23 27 28 27 26 26 25 22 19 15 12 10 14 17 17 18 17 17 18 18 19 18 18 17 16 16 15 14 13 12 12 15 15 12 11 11 10 9 8 8 8
12 20 25 29 30 28 27 26 24 22 19 16 13 11 15 17 19 18 18 19 19 18 18 18 17 16 15 14 13 13 11 8 10 14 13 11 11 10 9 9 8 8 7
23 17 24 26 26 26 25 25 25 23 20 16 13 12 16 17 18 19 19 19 17 17 16 17 15 14 13 13 14 12 10 8 9 13 12 11 11 10 10 9 9 9 8
23 20 22 27 26 27 26 27 26 23 20 17 13 14 17 18 18 19 19 18 16 16 15 14 13 13 12 13 13 12 10 9 7 11 10 10 10 10 10 10 10 10 10
24 21 26 27 29 32 32 31 28 25 22 18 16 16 18 20 20 20 19 17 16 15 13 12 11 11 10 11 12 11 8 6 6 11 10 10 10 9 9 10 10 10 10
18 17 24 26 30 40 34 31 29 26 22 20 17 20 22 22 23 21 19 16 14 13 11 10 9 7 7 10 12 10 7 5 5 10 10 9 9 9 9 10 10 11 11
12 8 9 19 16 29 35 33 32 28 24 21 21 23 25 20 21 19 17 15 14 11 10 7 4 3 4 8 11 9 5 4 6 9 8 8 7 7 8 10 11 11 12
14 14 13 12 11 29 27 34 33 31 26 25 27 28 26 24 23 21 17 15 12 11 7 5 2 2 6 8 9 7 3 3 6 6 7 7 7 7 9 11 12 12 11
15 14 14 16 13 26 29 31 38 39 33 28 29 32 30 27 25 21 18 14 12 8 4 2 1 5 5 6 7 3 2 4 7 6 7 7 6 8 9 11 11 12 12
11 9 12 15 21 32 27 31 21 40 40 35 34 33 29 28 19 19 16 12 8 6 4 1 4 6 10 10 4 3 3 6 9 7 8 8 8 8 9 10 11 12 13
13 14 13 16 18 33 21 33 29 26 38 38 39 36 28 27 24 18 14 10 9 6 2 3 6 9 9 5 3 5 7 7 11 9 9 9 9 9 10 11 14 16 19
13 14 15 17 30 26 27 40 35 37 43 46 47 45 34 24 20 16 13 10 8 5 5 5 8 8 7 5 4 6 5 8 11 10 9 9 9 9 11 16 20 23 23
11 7 15 17 29 22 32 34 36 34 37 51 49 35 25 21 19 16 13 11 9 8 7 7 9 9 7 6 7 8 9 10 12 9 6 8 11 14 18 22 24 28 25
9 14 18 19 20 24 20 22 22 22 28 38 32 25 25 25 20 16 14 12 10 9 8 11 11 11 8 8 9 10 10 11 10 15 15 14 18 20 21 24 26 29 29
11 13 12 16 17 17 15 17 23 26 35 33 28 29 29 20 19 16 13 12 11 11 13 13 13 12 10 12 12 12 14 14 14 16 21 28 25 23 26 26 27 30 30
7 8 10 15 26 33 36 36 34 30 28 27 28 27 23 21 18 14 14 14 14 15 16 15 14 12 12 15 15 15 17 19 19 21 24 21 23 28 31 30 29 29 30
23 27 24 27 24 22 20 20 22 27 26 25 22 19 19 19 17 17 17 17 16 19 18 17 14 14 14 16 19 21 21 21 24 25 26 27 27 24 24 29 32 34 34
15 15 19 19 18 18 18 16 19 18 18 17 17 18 18 18 18 20 21 19 19 20 19 17 17 17 17 17 19 24 26 26 27 28 28 25 24 27 30 34 33 33 35
10 15 15 17 17 15 15 14 15 16 16 16 19 19 19 20 20 20 22 21 21 22 22 19 19 20 21 19 21 25 25 31 33 28 29 29 30 28 32 36 37 34 35
12 12 14 14 16 15 15 15 15 16 17 19 18 19 19 19 20 21 23 24 22 25 25 23 24 23 23 23 23 25 28 31 32 31 35 31 29 34 35 34 32 37 40
13 14 12 11 12 15 14 16 17 16 15 15 15 15 17 19 21 23 24 27 27 26 29 27 28 26 26 31 26 27 33 33 32 33 27 33 33 36 42 42 38 38 40
12 12 13 15 17 15 15 15 16 16 16 17 17 15 18 20 22 25 27 28 26 27 29 32 32 29 29 31 33 31 29 34 36 33 28 24 30 37 40 43 46 48 46
14 15 16 17 17 18 17 21 18 17 18 20 20 21 19 19 24 23 31 27 30 34 35 31 36 33 32 31 34 36 35 35 36 31 30 30 36 36 37 41 42 43 44

GFSSE_700_spd_075.txt.gz
Wind_Speed
20 20 20 18 23 24 27 25 22 20 18 16 14 12 12 14 17 19 19 18 16 14 15 15 15 14 13 12 11 10 9 10 9 10 10 9 8 8 7 6 5 4 4
20 26 29 27 30 29 28 26 23 22 19 17 14 13 13 17 20 20 20 18 17 16 16 17 17 16 15 13 11 10 9 9 10 10 12 10 9 8 7 6 6 5 4
23 29 20 32 34 33 31 29 26 24 21 18 15 13 15 19 21 21 20 19 18 18 20 19 18 15 13 12 11 10 11 13 11 11 13 10 10 8 8 7 7 7 6
28 27 31 31 35 35 33 31 29 26 23 19 15 14 18 21 21 20 19 19 20 20 20 18 17 16 15 13 11 10 13 14 13 13 13 10 10 9 9 8 9 9 8
35 29 48 28 36 36 34 32 29 26 23 20 16 15 18 19 20 19 19 20 20 19 18 18 18 15 14 11 9 7 12 9 9 13 12 10 10 9 9 9 9 8 7
32 31 23 45 41 38 35 33 30 27 25 21 18 18 20 19 19 19 20 20 19 18 18 18 16 13 13 12 10 8 11 9 9 10 11 11 11 11 10 9 9 9 8
17 15 43 40 39 37 37 35 33 30 28 24 20 20 21 21 20 20 21 20 19 18 17 15 13 13 12 12 10 6 9 12 8 10 10 10 10 9 9 9 8 8 7
14 14 22 31 35 39 43 40 37 31 28 24 20 21 21 22 21 21 21 19 18 17 16 14 12 11 12 11 8 7 8 13 8 7 7 8 7 7 7 7 8 8 8
13 18 23 28 13 39 48 44 39 33 28 23 21 23 23 23 24 23 21 20 18 16 15 13 10 9 10 7 7 4 6 11 6 6 6 6 6 7 7 7 7 8 9
12 10 6 4 17 24 49 50 41 35 28 25 25 26 26 26 27 26 23 18 18 16 12 10 8 6 5 5 7 4 5 7 3 5 5 5 5 5 5 6 7 9 10
9 12 9 7 5 8 26 37 38 32 28 27 29 30 30 30 27 20 19 17 15 15 12 7 5 3 4 2 3 2 3 4 3 3 4 3 3 4 4 6 7 9 9
13 14 12 11 8 9 10 29 34 30 29 30 31 32 31 28 25 22 20 18 17 12 10 5 3 3 2 4 2 1 2 3 2 3 2 2 2 1 3 5 8 10 12
11 13 12 13 14 11 10 20 26 39 34 30 32 32 27 27 25 25 20 16 13 10 7 4 2 2 3 2 2 0 4 3 3 4 2 1 1 2 3 5 9 12 15
14 13 14 12 8 7 21 23 26 39 26 41 41 37 31 30 27 20 19 14 13 11 6 3 2 4 3 1 1 2 6 3 2 4 4 4 4 4 5 6 9 12 17
11 12 10 6 9 2 28 16 27 23 29 38 42 36 32 31 28 25 21 16 13 9 5 4 3 5 5 3 3 5 7 6 6 6 7 6 5 4 6 9 12 14 18
9 8 5 6 16 19 19 23 31 29 38 34 40 38 37 35 28 26 18 15 12 10 5 6 5 6 6 6 6 5 6 9 8 7 7 8 10 11 13 13 15 17 18
11 7 7 6 6 23 10 17 40 31 35 36 37 39 35 33 27 22 17 14 10 9 8 8 8 7 7 9 8 8 8 10 11 9 10 13 16 16 16 17 18 20 22
7 9 7 16 8 11 16 23 23 23 29 19 31 39 35 29 22 20 18 14 12 11 12 10 10 10 10 10 9 9 10 11 14 14 15 17 16 13 14 17 19 20 23
9 7 8 11 13 22 16 18 20 21 21 16 24 36 33 32 24 22 20 15 14 14 12 12 13 13 13 12 11 13 13 15 16 17 22 21 21 19 20 19 18 22 25
13 14 15 16 19 21 21 22 26 29 32 36 35 33 33 27 24 22 20 17 16 14 15 14 16 16 16 16 15 16 16 20 20 20 21 23 24 24 20 19 21 24 25
24 29 30 30 26 24 25 27 28 31 31 34 33 29 25 25 24 21 20 18 16 16 16 18 19 18 18 18 20 21 23 23 24 24 25 25 25 23 23 25 26 28 32
15 16 18 19 17 17 16 16 17 18 16 15 17 22 26 23 21 21 20 18 19 20 21 21 22 21 22 23 23 25 27 27 27 28 31 28 27 23 23 24 26 30 33
11 12 13 14 14 12 13 15 18 19 20 22 21 20 19 19 19 20 21 20 20 21 23 24 24 25 26 27 28 29 30 31 30 32 31 29 30 27 24 24 29 34 34
9 11 11 12 13 13 12 13 13 12 12 11 10 12 16 18 17 17 20 23 22 23 27 27 24 31 32 35 32 31 33 32 31 34 33 35 35 27 25 29 33 33 36
12 13 13 13 12 13 12 12 13 13 11 12 12 13 14 15 16 16 18 22 24 25 28 31 30 25 35 37 40 34 35 34 34 37 37 33 35 30 29 33 36 38 41
12 13 15 14 14 15 14 14 13 10 12 16 14 14 14 17 17 18 21 22 23 23 31 32 32 32 40 39 43 42 32 35 36 38 39 32 33 29 32 34 39 41 43

GFSSE_700_spd_078.txt.gz
Wind_Speed
15 17 25 24 27 27 25 32 31 29 29 24 21 19 18 17 16 15 16 16 15 13 12 12 12 12 11 10 10 9 9 8 7 8 8 7 7 7 6 5 4 4 3
14 11 19 23 28 29 35 33 32 32 29 25 21 18 17 17 18 19 19 18 16 14 13 13 12 12 12 12 10 9 9 9 8 8 8 7 7 6 6 5 4 4 3
9 15 18 23 34 34 35 35 35 32 28 23 19 17 17 19 21 20 19 18 16 15 15 15 14 12 11 11 11 9 7 8 8 9 9 8 6 7 7 7 5 6 6
7 16 27 27 33 37 36 35 33 31 27 24 21 18 18 20 21 21 19 17 17 17 17 15 13 12 12 13 13 11 9 9 8 8 10 8 8 7 7 7 6 7 7
9 14 21 19 30 37 32 36 34 32 28 24 21 20 21 22 23 21 19 18 19 18 16 15 14 13 12 12 10 9 9 8 8 9 9 9 9 8 8 8 8 7 7
15 15 21 26 18 34 40 40 37 33 29 25 23 23 23 24 23 22 21 21 20 18 17 16 13 9 9 11 11 7 8 6 7 8 9 9 9 9 9 8 8 7 7
18 18 18 29 35 46 47 43 41 36 31 28 26 26 25 24 23 22 23 23 21 19 17 14 10 7 7 10 9 9 8 6 6 7 7 8 8 8 8 7 6 6 6
17 19 23 32 31 32 40 42 45 39 34 30 26 28 27 26 25 25 24 23 21 19 17 14 11 6 3 8 11 12 7 7 5 5 5 6 7 7 7 6 7 8 8
25 15 12 15 33 12 63 55 46 47 36 31 28 29 28 28 27 27 25 23 22 20 17 13 12 8 2 7 11 9 8 5 5 3 4 5 6 6 6 7 7 8 9
13 12 5 11 28 15 51 57 51 41 36 32 32 31 29 29 29 28 26 24 23 20 16 12 9 5 2 4 4 5 6 5 4 1 2 3 5 5 6 6 7 8 9
10 4 10 7 13 17 45 44 53 46 35 34 34 33 33 32 32 29 27 25 21 18 14 9 6 4 3 2 2 4 4 4 3 2 1 1 2 3 3 4 5 6 8
12 9 14 10 3 8 21 42 40 43 35 34 35 33 34 33 32 30 26 23 20 17 14 10 6 3 1 2 1 2 3 1 0 0 0 1 0 0 1 2 5 5 8
14 14 13 10 5 2 4 14 33 39 35 35 35 34 34 34 33 27 23 18 17 18 13 9 5 2 1 3 2 1 1 1 3 2 1 1 1 2 1 2 1 4 9
13 12 13 11 8 5 5 7 20 24 36 33 35 33 33 33 29 25 22 20 20 16 12 9 5 2 1 4 3 1 0 1 3 3 3 2 2 2 3 2 6 8 11
13 11 14 11 12 6 9 10 19 20 31 45 35 37 37 34 29 27 24 25 18 14 11 7 4 1 2 4 3 2 2 3 5 5 3 1 1 3 5 8 9 11 13
11 12 12 13 13 11 9 17 14 12 31 30 33 41 36 31 29 27 28 25 17 13 9 8 4 2 2 4 5 6 6 6 6 4 3 3 6 9 12 12 13 13 14
6 12 11 9 11 13 11 14 18 18 37 29 41 41 38 35 30 28 31 24 16 14 11 8 5 4 4 6 8 8 9 9 9 7 7 8 10 12 11 11 12 14 14
16 12 8 10 9 9 22 5 15 30 37 33 44 39 40 44 31 32 27 19 18 17 13 9 8 6 7 9 10 12 12 13 12 10 11 12 14 17 16 18 18 15 15
11 11 17 16 13 9 25 23 27 38 28 28 31 38 44 32 32 27 25 23 19 15 11 11 11 9 10 11 12 14 15 17 16 14 14 16 17 18 16 17 16 17 17
12 12 16 20 18 18 24 20 23 19 21 28 25 24 36 33 35 30 26 20 18 15 14 13 12 13 14 14 15 16 17 20 21 18 17 19 20 22 22 21 20 20 20
12 12 10 12 19 24 25 22 23 21 28 25 29 41 39 39 35 32 26 24 19 16 15 15 15 15 16 17 19 21 21 23 23 22 23 24 24 23 22 20 20 21 22
17 24 25 25 25 24 21 22 21 22 26 31 34 37 39 38 36 31 27 24 20 19 18 17 18 18 19 21 23 25 28 28 27 26 28 28 29 27 26 25 25 27 27
10 12 16 17 17 20 23 24 26 27 27 28 29 33 35 34 32 25 22 22 20 20 20 20 21 22 22 23 26 30 35 33 32 32 33 32 30 31 31 31 27 28 31
9 10 10 11 13 15 16 18 17 16 18 20 23 25 27 26 24 22 21 21 20 20 19 21 23 24 25 26 26 34 34 39 37 38 35 34 34 33 34 31 31 33 33
7 9 10 10 12 13 14 14 14 13 13 14 17 19 20 21 22 20 20 19 17 17 18 20 25 24 26 33 31 35 36 38 44 41 43 36 36 34 33 33 33 34 34
11 12 13 13 13 11 11 12 13 13 13 14 14 14 16 16 16 17 19 19 20 19 17 21 21 25 25 27 32 33 43 44 38 44 41 39 35 35 38 37 37 37 36

GFSSE_700_spd_081.txt.gz
Wind_Speed
17 25 27 24 21 23 21 15 11 18 19 28 32 29 22 16 12 11 12 13 12 10 8 9 10 11 11 11 10 9 8 7 6 8 8 8 7 7 6 6 6 6 5
11 21 24 29 30 27 24 21 21 25 24 29 31 27 20 16 15 15 15 13 12 11 9 9 12 12 12 10 8 8 7 7 7 7 7 7 7 6 6 7 7 6 5
6 15 23 29 31 27 24 26 30 31 30 30 29 27 22 19 17 17 16 15 13 11 11 12 14 14 10 8 7 6 6 5 6 6 6 6 6 6 7 7 7 6 6
19 16 19 23 25 26 22 31 33 31 34 33 30 27 21 20 19 18 16 15 13 12 12 13 14 13 9 9 8 8 7 7 6 5 6 5 6 6 6 7 7 6 6
18 18 24 24 29 32 31 31 40 37 35 31 26 24 21 21 21 19 18 17 16 16 15 14 15 15 12 9 8 7 6 6 5 5 6 6 7 7 8 8 8 7 6
18 20 24 28 36 32 37 25 41 39 35 31 29 23 25 25 23 22 20 18 18 17 15 16 17 14 11 8 7 7 7 6 6 5 5 6 7 7 8 7 7 6 6
18 20 26 35 41 39 37 36 40 42 37 32 27 28 29 27 26 23 22 21 20 18 16 16 15 13 10 8 7 8 7 7 6 5 5 6 7 7 6 6 7 7 7
18 20 23 32 41 39 32 42 46 47 39 36 29 31 31 29 26 25 23 22 20 18 17 16 14 12 10 7 7 7 10 8 5 5 5 6 6 6 6 6 7 8 9
16 21 21 29 37 44 33 49 56 49 44 36 32 34 32 31 28 27 25 23 21 19 16 13 13 12 9 8 9 6 7 6 5 5 5 5 5 5 5 7 8 8 8
12 19 23 25 44 46 44 32 43 44 41 40 34 35 33 31 29 28 28 25 22 19 15 14 12 9 7 7 8 6 6 5 3 3 3 3 3 5 5 6 5 6 8
14 9 11 9 8 25 43 39 38 56 39 43 35 37 35 35 33 32 29 26 23 20 15 8 7 5 3 5 5 6 6 5 4 2 2 2 2 3 3 3 4 6 5
13 14 12 8 2 7 15 50 65 50 46 40 41 40 37 37 35 33 30 28 25 18 14 10 9 4 3 3 4 5 5 4 5 3 1 1 1 0 0 1 4 2 4
13 13 10 9 2 11 40 49 54 57 50 44 41 39 38 39 37 34 31 26 22 19 14 12 6 5 3 3 4 5 4 3 3 3 1 1 1 2 2 3 3 3 6
11 12 10 10 5 3 10 44 43 43 43 40 40 39 40 38 36 32 28 24 21 16 13 10 8 4 2 3 5 5 3 2 2 1 1 3 3 3 3 4 5 8 10
11 11 9 10 11 8 6 16 38 33 45 46 42 41 38 37 33 29 26 23 18 15 13 12 7 4 3 3 4 4 3 3 2 1 2 2 3 3 4 7 10 12 12
14 13 12 12 13 7 9 14 17 13 44 50 48 39 38 34 32 28 25 21 19 20 17 12 7 5 5 4 4 4 4 4 3 2 2 3 3 5 6 9 11 11 12
13 16 8 14 14 16 10 12 17 18 31 32 29 45 39 34 32 25 26 24 22 20 17 12 9 7 5 5 4 5 5 5 5 5 7 7 7 8 10 12 13 15 16
16 12 11 15 13 19 13 15 19 21 31 37 33 34 38 36 30 28 27 25 26 18 18 13 11 9 7 7 6 7 9 9 9 8 10 11 11 11 13 13 14 15 16
18 19 18 20 18 17 18 23 17 23 27 41 35 41 42 38 33 33 29 27 29 23 17 16 14 11 10 9 9 11 12 13 13 12 13 15 14 13 14 17 19 20 20
17 19 19 19 17 15 18 27 14 30 41 45 29 40 39 38 39 42 31 29 28 21 20 19 15 14 13 11 12 14 15 16 16 16 18 19 19 18 17 18 20 21 21
16 13 18 20 16 20 18 32 15 26 37 30 23 41 42 43 42 35 32 30 23 22 20 19 19 17 14 14 17 17 18 20 21 22 22 24 24 22 21 22 22 23 25
21 17 13 19 20 22 19 20 16 20 19 23 30 39 23 34 38 37 32 25 24 25 22 22 21 17 18 18 20 22 24 23 24 25 27 28 28 29 25 26 26 27 27
16 19 22 21 22 23 23 23 23 22 22 24 27 30 31 38 40 36 32 27 28 27 25 23 22 21 21 22 22 26 29 27 26 27 30 30 33 33 30 31 30 31 29
6 8 11 15 20 23 24 24 23 24 24 24 24 28 35 36 37 35 34 31 28 30 26 23 23 22 23 23 27 27 32 31 26 31 30 34 40 39 38 35 34 35 33
4 4 5 8 12 14 17 18 16 15 18 20 21 23 27 30 31 30 31 29 31 28 26 25 24 23 23 27 27 28 28 31 33 40 36 36 38 41 42 41 36 37 39
6 6 8 8 8 9 11 13 13 15 16 17 19 19 21 24 24 26 28 31 28 27 24 23 26 26 24 25 28 30 29 31 33 43 40 38 38 35 36 40 39 36 34

GFSSE_700_spd_084.txt.gz
Wind_Speed
19 27 25 16 17 21 20 20 16 13 20 18 26 20 20 18 14 9 8 9 10 10 9 9 11 11 12 12 11 9 9 9 8 8 8 8 8 9 8 8 8 7 6
17 24 22 28 26 27 22 21 16 14 14 18 23 26 21 19 17 13 10 11 11 9 8 10 12 12 12 10 9 9 8 8 8 7 8 7 7 8 7 8 8 7 7
17 13 24 29 28 27 25 20 19 16 21 17 11 22 20 21 18 15 12 12 11 9 10 11 11 11 11 9 8 8 7 7 7 7 7 6 6 7 7 8 8 7 7
20 21 21 26 29 31 28 22 24 19 25 23 16 22 26 21 20 18 16 15 13 12 13 13 12 12 11 9 8 7 7 7 6 5 5 5 6 6 6 7 8 8 8
19 20 26 30 32 35 30 29 28 22 24 30 24 20 24 22 20 19 19 15 13 12 14 14 12 12 11 11 10 9 8 7 6 6 6 7 8 7 8 8 9 9 8
18 22 26 34 37 36 33 32 26 24 31 29 29 24 24 23 21 22 20 18 17 16 16 14 12 12 10 8 7 7 6 6 5 5 6 7 7 8 8 8 8 7 7
14 24 27 30 40 36 37 36 25 24 34 31 30 29 27 23 25 23 21 19 17 17 16 16 13 11 9 7 7 7 6 6 5 5 6 6 7 7 7 7 7 7 7
19 22 27 28 32 40 39 41 29 33 38 37 37 30 27 27 25 24 22 20 19 19 18 16 13 10 8 7 7 8 7 7 7 6 5 5 5 6 7 7 7 7 8
11 16 22 28 39 52 53 33 32 42 41 40 37 37 30 27 28 25 24 23 21 19 18 16 13 10 7 6 7 8 9 8 7 5 5 6 6 7 7 7 8 8 8
13 13 20 25 29 42 50 47 39 45 43 42 35 33 29 31 29 28 28 25 22 21 18 15 14 12 7 6 7 8 8 8 6 5 5 6 6 7 7 6 6 7 7
16 11 10 11 10 40 40 39 40 42 48 51 39 33 31 33 32 32 28 25 23 20 19 17 14 8 5 6 7 6 5 3 4 5 5 5 6 6 6 5 5 6 4
16 11 14 8 7 7 20 40 50 47 55 52 36 36 39 38 35 34 30 27 23 21 19 15 11 8 6 5 5 4 3 3 3 3 4 5 4 4 3 4 5 3 2
25 13 11 10 14 15 13 34 46 42 49 43 44 37 39 39 38 35 32 27 22 19 16 12 8 5 5 4 5 5 4 3 3 2 3 3 2 2 3 4 4 4 4
18 11 7 8 12 6 13 33 49 50 53 49 43 42 42 39 40 36 29 25 21 18 13 10 7 6 5 4 5 4 3 4 3 2 3 1 1 2 2 3 4 6 8
11 10 7 7 7 3 7 5 65 49 62 47 44 43 41 41 38 33 28 24 19 16 13 8 5 6 6 4 3 4 4 3 2 1 1 1 1 2 3 5 8 10 11
9 9 8 7 7 2 1 12 46 49 48 42 42 40 39 40 37 32 28 23 20 16 11 6 8 8 4 3 4 5 4 3 3 2 2 2 2 4 5 7 9 11 12
13 13 11 11 11 11 10 32 28 27 42 44 46 44 43 39 34 30 27 24 20 15 11 10 12 10 5 4 6 6 5 4 4 4 3 5 6 7 9 11 11 12 14
16 15 10 13 16 16 14 17 23 23 34 46 47 47 39 35 35 32 27 22 18 18 13 14 15 11 8 6 7 6 7 7 7 6 6 7 9 11 13 14 14 15 16
15 17 11 12 12 14 14 15 17 19 29 44 42 44 50 43 38 28 26 27 22 19 17 17 16 12 12 10 9 8 8 9 9 10 9 10 13 15 17 17 17 16 17
21 16 17 13 11 16 11 11 12 16 31 36 40 41 44 50 41 32 30 28 25 22 20 17 17 14 15 14 12 11 10 12 13 13 14 15 17 19 22 22 22 20 20
21 20 17 19 18 16 13 18 17 19 27 33 35 38 34 26 30 34 33 27 30 26 18 20 18 18 17 16 17 15 14 15 16 16 18 19 21 24 26 27 27 26 24
19 16 17 20 24 17 24 12 24 19 31 34 36 38 38 37 36 34 32 33 28 25 25 21 19 19 19 21 20 19 21 20 20 19 19 23 24 26 28 31 33 32 31
12 8 11 20 21 17 23 19 29 19 31 34 33 33 41 40 40 36 36 34 32 30 26 21 22 21 22 25 24 23 24 24 21 25 26 19 21 29 26 32 36 37 37
8 11 12 12 14 22 24 22 22 18 19 20 21 32 32 36 38 37 39 37 33 31 26 23 25 26 27 27 27 25 26 29 29 30 25 29 27 37 31 32 35 39 40
7 7 10 13 15 16 16 18 20 19 20 20 23 30 31 39 32 39 38 36 34 31 27 27 29 31 29 29 28 28 30 30 27 33 30 27 30 39 34 32 33 35 39
5 8 10 11 12 13 14 15 16 15 16 17 17 19 23 26 29 29 30 30 29 30 28 29 33 32 31 35 29 30 30 30 33 34 32 35 33 28 31 33 30 36 34